Time,TemperatureF,DewpointF,PressureIn,WindDirection,WindDirectionDegrees,WindSpeedMPH,WindSpeedGustMPH,Humidity,HourlyPrecipIn,Conditions,Clouds,dailyrainin,SoftwareType,DateUTC
2013-11-24 00:00:00,6.1,-11.2,29.50,WNW,292,1.2,0.0,44,0.00,CLR,,0.00,WeatherDisplay:10.37,2013-11-24 06:00:00,
2013-11-24 00:01:00,6.1,-11.2,29.50,WNW,292,1.2,0.0,44,0.00,CLR,,0.00,WeatherDisplay:10.37,2013-11-24 06:01:00,
2013-11-24 00:02:00,5.9,-11.4,29.50,WNW,292,0.0,0.0,44,0.00,CLR,,0.00,WeatherDisplay:10.37,2013-11-24 06:02:00,
2013-11-24 00:03:00,5.9,-11.4,29.50,WNW,292,0.0,0.0,44,0.00,CLR,,0.00,WeatherDisplay:10.37,2013-11-24 06:03:00,
2013-11-24 00:04:00,5.9,-11.4,29.50,WNW,292,0.0,0.0,44,0.00,CLR,,0.00,WeatherDisplay:10.37,2013-11-24 06:04:00,
2013-11-24 00:05:00,5.9,-11.4,29.50,WNW,292,0.0,0.0,44,0.00,CLR,,0.00,WeatherDisplay:10.37,2013-11-24 06:05:00,
2013-11-24 00:06:00,5.9,-11.4,29.50,WNW,292,0.0,0.0,44,0.00,CLR,,0.00,WeatherDisplay:10.37,2013-11-24 06:06:00,
2013-11-24 00:07:00,5.7,-11.5,29.50,WNW,292,0.0,0.0,44,0.00,CLR,,0.00,WeatherDisplay:10.37,2013-11-24 06:07:00,
2013-11-24 00:08:00,5.7,-11.5,29.50,WNW,292,0.0,0.0,44,0.00,CLR,,0.00,WeatherDisplay:10.37,2013-11-24 06:08:00,
2013-11-24 00:09:00,5.5,-11.7,29.47,WNW,292,0.0,0.0,44,0.00,CLR,,0.00,WeatherDisplay:10.37,2013-11-24 06:09:00,
2013-11-24 00:10:00,5.5,-11.7,29.47,WNW,292,0.0,0.0,44,0.00,CLR,,0.00,WeatherDisplay:10.37,2013-11-24 06:10:00,
2013-11-24 00:11:00,5.5,-11.7,29.47,WNW,292,1.6,0.0,44,0.00,CLR,,0.00,WeatherDisplay:10.37,2013-11-24 06:11:00,
2013-11-24 00:12:00,5.5,-11.7,29.47,WNW,292,1.6,1.6,44,0.00,CLR,,0.00,WeatherDisplay:10.37,2013-11-24 06:12:00,
2013-11-24 00:13:00,5.5,-11.7,29.47,WNW,292,2.0,2.0,44,0.00,CLR,,0.00,WeatherDisplay:10.37,2013-11-24 06:13:00,
2013-11-24 00:15:00,5.5,-11.7,29.47,West,270,1.2,1.4,44,0.00,CLR,,0.00,WeatherDisplay:10.37,2013-11-24 06:15:00,
2013-11-24 00:17:00,5.4,-11.9,29.47,West,270,1.4,1.4,44,0.00,CLR,,0.00,WeatherDisplay:10.37,2013-11-24 06:17:00,
2013-11-24 00:18:00,5.4,-11.9,29.47,West,270,1.2,1.2,44,0.00,CLR,,0.00,WeatherDisplay:10.37,2013-11-24 06:18:00,
2013-11-24 00:19:00,5.4,-11.9,29.47,West,270,1.2,0.0,44,0.00,CLR,,0.00,WeatherDisplay:10.37,2013-11-24 06:19:00,
2013-11-24 00:20:00,5.4,-11.9,29.47,West,270,0.0,0.0,44,0.00,CLR,,0.00,WeatherDisplay:10.37,2013-11-24 06:20:00,
2013-11-24 00:22:00,5.4,-11.9,29.47,West,270,0.0,0.0,44,0.00,CLR,,0.00,WeatherDisplay:10.37,2013-11-24 06:22:00,
2013-11-24 00:23:00,5.4,-11.9,29.47,West,270,0.0,0.0,44,0.00,CLR,,0.00,WeatherDisplay:10.37,2013-11-24 06:23:00,
2013-11-24 00:24:00,5.4,-11.9,29.47,West,270,0.0,0.0,44,0.00,CLR,,0.00,WeatherDisplay:10.37,2013-11-24 06:24:00,
2013-11-24 00:25:00,5.2,-12.0,29.50,West,270,0.0,0.0,44,0.00,CLR,,0.00,WeatherDisplay:10.37,2013-11-24 06:25:00,
2013-11-24 00:26:00,5.2,-12.0,29.50,West,270,0.0,0.0,44,0.00,CLR,,0.00,WeatherDisplay:10.37,2013-11-24 06:26:00,
2013-11-24 00:27:00,5.2,-12.0,29.50,West,270,0.0,0.0,44,0.00,CLR,,0.00,WeatherDisplay:10.37,2013-11-24 06:27:00,
2013-11-24 00:28:00,5.2,-12.0,29.50,West,270,0.0,0.0,44,0.00,CLR,,0.00,WeatherDisplay:10.37,2013-11-24 06:28:00,
2013-11-24 00:29:00,5.2,-12.0,29.50,West,270,0.0,0.0,44,0.00,CLR,,0.00,WeatherDisplay:10.37,2013-11-24 06:29:00,
2013-11-24 00:30:00,5.2,-12.0,29.50,West,270,0.0,0.0,44,0.00,CLR,,0.00,WeatherDisplay:10.37,2013-11-24 06:30:00,
2013-11-24 00:31:00,5.2,-12.0,29.50,West,270,0.0,0.0,44,0.00,CLR,,0.00,WeatherDisplay:10.37,2013-11-24 06:31:00,
2013-11-24 00:32:00,5.0,-12.2,29.50,West,270,0.0,0.0,44,0.00,CLR,,0.00,WeatherDisplay:10.37,2013-11-24 06:32:00,
2013-11-24 00:33:00,5.0,-12.2,29.50,West,270,0.0,0.0,44,0.00,CLR,,0.00,WeatherDisplay:10.37,2013-11-24 06:33:00,
2013-11-24 00:34:00,5.0,-12.2,29.50,West,270,0.0,0.0,44,0.00,CLR,,0.00,WeatherDisplay:10.37,2013-11-24 06:34:00,
2013-11-24 00:35:00,5.0,-12.2,29.50,West,270,0.0,0.0,44,0.00,CLR,,0.00,WeatherDisplay:10.37,2013-11-24 06:35:00,
2013-11-24 00:36:00,5.0,-12.2,29.50,West,270,0.0,0.0,44,0.00,CLR,,0.00,WeatherDisplay:10.37,2013-11-24 06:36:00,
2013-11-24 00:38:00,5.0,-12.2,29.50,West,270,0.0,0.0,44,0.00,CLR,,0.00,WeatherDisplay:10.37,2013-11-24 06:38:00,
2013-11-24 00:39:00,5.0,-12.2,29.50,West,270,0.0,0.0,44,0.00,CLR,,0.00,WeatherDisplay:10.37,2013-11-24 06:39:00,
2013-11-24 00:40:00,5.0,-12.2,29.47,WNW,292,0.0,0.0,44,0.00,CLR,,0.00,WeatherDisplay:10.37,2013-11-24 06:40:00,
2013-11-24 00:41:00,5.0,-12.2,29.47,ENE,68,1.2,0.0,44,0.00,CLR,,0.00,WeatherDisplay:10.37,2013-11-24 06:41:00,
2013-11-24 00:43:00,5.0,-12.2,29.47,ENE,68,1.2,1.2,44,0.00,CLR,,0.00,WeatherDisplay:10.37,2013-11-24 06:43:00,
2013-11-24 00:44:00,5.0,-12.2,29.47,NNW,348,1.0,2.0,44,0.00,CLR,,0.00,WeatherDisplay:10.37,2013-11-24 06:44:00,
2013-11-24 00:45:00,5.0,-12.2,29.47,ENE,68,1.2,1.2,44,0.00,CLR,,0.00,WeatherDisplay:10.37,2013-11-24 06:45:00,
2013-11-24 00:46:00,5.0,-12.2,29.47,ENE,68,2.3,2.3,44,0.00,CLR,,0.00,WeatherDisplay:10.37,2013-11-24 06:46:00,
2013-11-24 00:48:00,5.0,-12.2,29.47,NE,45,2.2,2.2,44,0.00,CLR,,0.00,WeatherDisplay:10.37,2013-11-24 06:48:00,
2013-11-24 00:50:00,5.0,-12.2,29.47,NE,45,2.4,2.4,44,0.00,CLR,,0.00,WeatherDisplay:10.37,2013-11-24 06:50:00,
2013-11-24 00:51:00,5.0,-12.2,29.47,NE,45,2.3,2.3,44,0.00,CLR,,0.00,WeatherDisplay:10.37,2013-11-24 06:51:00,
2013-11-24 00:53:00,5.0,-12.2,29.47,North,0,2.3,2.3,44,0.00,CLR,,0.00,WeatherDisplay:10.37,2013-11-24 06:53:00,
2013-11-24 00:55:00,5.2,-12.0,29.47,North,0,2.2,2.2,44,0.00,CLR,,0.00,WeatherDisplay:10.37,2013-11-24 06:55:00,
2013-11-24 00:56:00,5.2,-12.0,29.47,North,0,2.3,2.3,44,0.00,CLR,,0.00,WeatherDisplay:10.37,2013-11-24 06:56:00,
2013-11-24 00:57:00,5.2,-12.0,29.47,North,0,2.3,2.3,44,0.00,CLR,,0.00,WeatherDisplay:10.37,2013-11-24 06:57:00,
2013-11-24 00:58:00,5.0,-12.2,29.47,North,0,2.3,2.3,44,0.00,CLR,,0.00,WeatherDisplay:10.37,2013-11-24 06:58:00,
2013-11-24 01:00:00,5.0,-12.2,29.47,North,0,2.3,2.3,44,0.00,CLR,,0.00,WeatherDisplay:10.37,2013-11-24 07:00:00,
2013-11-24 01:02:00,5.0,-12.2,29.47,North,0,1.4,1.4,44,0.00,CLR,,0.00,WeatherDisplay:10.37,2013-11-24 07:02:00,
2013-11-24 01:03:00,5.0,-12.2,29.47,North,0,2.3,2.3,44,0.00,CLR,,0.00,WeatherDisplay:10.37,2013-11-24 07:03:00,
2013-11-24 01:04:00,5.0,-12.2,29.47,West,270,2.4,2.4,44,0.00,CLR,,0.00,WeatherDisplay:10.37,2013-11-24 07:04:00,
2013-11-24 01:05:00,5.0,-12.2,29.47,West,270,2.4,2.4,44,0.00,CLR,,0.00,WeatherDisplay:10.37,2013-11-24 07:05:00,
2013-11-24 01:07:00,5.0,-12.2,29.47,WSW,248,2.3,2.3,44,0.00,CLR,,0.00,WeatherDisplay:10.37,2013-11-24 07:07:00,
2013-11-24 01:08:00,5.0,-12.2,29.47,West,270,1.6,1.6,44,0.00,CLR,,0.00,WeatherDisplay:10.37,2013-11-24 07:08:00,
2013-11-24 01:09:00,5.0,-12.2,29.47,West,270,1.2,1.2,44,0.00,CLR,,0.00,WeatherDisplay:10.37,2013-11-24 07:09:00,
2013-11-24 01:10:00,5.0,-12.2,29.47,West,270,2.3,2.3,44,0.00,CLR,,0.00,WeatherDisplay:10.37,2013-11-24 07:10:00,
2013-11-24 01:12:00,5.0,-12.2,29.47,NW,315,2.3,2.3,44,0.00,CLR,,0.00,WeatherDisplay:10.37,2013-11-24 07:12:00,
2013-11-24 01:13:00,5.0,-12.2,29.47,NW,315,2.3,2.3,44,0.00,CLR,,0.00,WeatherDisplay:10.37,2013-11-24 07:13:00,
2013-11-24 01:14:00,5.0,-12.2,29.47,NW,315,2.3,2.3,44,0.00,CLR,,0.00,WeatherDisplay:10.37,2013-11-24 07:14:00,
2013-11-24 01:15:00,5.0,-12.2,29.47,NW,315,2.0,0.0,44,0.00,CLR,,0.00,WeatherDisplay:10.37,2013-11-24 07:15:00,
2013-11-24 01:18:00,4.8,-12.4,29.47,NW,315,0.0,0.0,44,0.00,CLR,,0.00,WeatherDisplay:10.37,2013-11-24 07:18:00,
2013-11-24 01:19:00,4.6,-12.5,29.47,NW,315,0.0,0.0,44,0.00,CLR,,0.00,WeatherDisplay:10.37,2013-11-24 07:19:00,
2013-11-24 01:21:00,4.6,-12.5,29.47,NW,315,0.0,0.0,44,0.00,CLR,,0.00,WeatherDisplay:10.37,2013-11-24 07:21:00,
2013-11-24 01:23:00,4.5,-12.7,29.47,NNW,338,0.0,0.0,44,0.00,CLR,,0.00,WeatherDisplay:10.37,2013-11-24 07:23:00,
2013-11-24 01:24:00,4.5,-12.7,29.47,NNW,338,0.0,0.0,44,0.00,CLR,,0.00,WeatherDisplay:10.37,2013-11-24 07:24:00,
2013-11-24 01:26:00,4.6,-12.5,29.47,NW,315,3.5,3.5,44,0.00,CLR,,0.00,WeatherDisplay:10.37,2013-11-24 07:26:00,
2013-11-24 01:28:00,5.0,-12.2,29.47,NNW,338,2.4,2.4,44,0.00,CLR,,0.00,WeatherDisplay:10.37,2013-11-24 07:28:00,
2013-11-24 01:29:00,5.0,-12.2,29.47,WNW,292,2.4,2.4,44,0.00,CLR,,0.00,WeatherDisplay:10.37,2013-11-24 07:29:00,
2013-11-24 01:31:00,5.0,-12.2,29.47,WNW,292,3.5,3.5,44,0.00,CLR,,0.00,WeatherDisplay:10.37,2013-11-24 07:31:00,
2013-11-24 01:33:00,5.2,-12.0,29.47,WNW,292,2.4,2.4,44,0.00,CLR,,0.00,WeatherDisplay:10.37,2013-11-24 07:33:00,
2013-11-24 01:34:00,5.2,-12.0,29.47,NW,309,2.0,3.0,44,0.00,CLR,,0.00,WeatherDisplay:10.37,2013-11-24 07:34:00,
2013-11-24 01:35:00,5.2,-12.0,29.47,WNW,292,2.3,2.3,44,0.00,CLR,,0.00,WeatherDisplay:10.37,2013-11-24 07:35:00,
2013-11-24 01:36:00,5.2,-12.0,29.47,WNW,292,2.3,2.3,44,0.00,CLR,,0.00,WeatherDisplay:10.37,2013-11-24 07:36:00,
2013-11-24 01:39:00,5.2,-12.0,29.47,WNW,292,1.6,1.6,44,0.00,CLR,,0.00,WeatherDisplay:10.37,2013-11-24 07:39:00,
2013-11-24 01:40:00,5.2,-12.0,29.47,WNW,292,2.3,2.3,44,0.00,CLR,,0.00,WeatherDisplay:10.37,2013-11-24 07:40:00,
2013-11-24 01:41:00,5.2,-12.0,29.47,WNW,292,1.2,0.0,44,0.00,CLR,,0.00,WeatherDisplay:10.37,2013-11-24 07:41:00,
2013-11-24 01:44:00,5.0,-12.2,29.47,WNW,292,1.2,1.2,44,0.00,CLR,,0.00,WeatherDisplay:10.37,2013-11-24 07:44:00,
2013-11-24 01:45:00,5.0,-12.2,29.47,WNW,292,1.2,0.0,44,0.00,CLR,,0.00,WeatherDisplay:10.37,2013-11-24 07:45:00,
2013-11-24 01:46:00,5.0,-12.2,29.47,WNW,292,0.0,0.0,44,0.00,CLR,,0.00,WeatherDisplay:10.37,2013-11-24 07:46:00,
2013-11-24 01:49:00,5.0,-12.2,29.47,SW,225,0.0,0.0,44,0.00,CLR,,0.00,WeatherDisplay:10.37,2013-11-24 07:49:00,
2013-11-24 01:50:00,5.0,-12.2,29.47,West,270,1.4,0.0,44,0.00,CLR,,0.00,WeatherDisplay:10.37,2013-11-24 07:50:00,
2013-11-24 01:51:00,5.0,-12.2,29.47,West,270,2.6,2.6,44,0.00,CLR,,0.00,WeatherDisplay:10.37,2013-11-24 07:51:00,
2013-11-24 01:52:00,5.0,-12.2,29.47,West,270,2.3,2.3,44,0.00,CLR,,0.00,WeatherDisplay:10.37,2013-11-24 07:52:00,
2013-11-24 01:55:00,5.0,-12.2,29.47,SW,225,2.3,2.3,44,0.00,CLR,,0.00,WeatherDisplay:10.37,2013-11-24 07:55:00,
2013-11-24 01:56:00,5.0,-12.2,29.47,WSW,248,1.2,0.0,44,0.00,CLR,,0.00,WeatherDisplay:10.37,2013-11-24 07:56:00,
2013-11-24 01:57:00,5.2,-12.0,29.47,WSW,248,0.0,0.0,44,0.00,CLR,,0.00,WeatherDisplay:10.37,2013-11-24 07:57:00,
2013-11-24 02:00:00,5.2,-12.0,29.47,WSW,248,0.0,0.0,44,0.00,CLR,,0.00,WeatherDisplay:10.37,2013-11-24 08:00:00,
2013-11-24 02:01:00,5.2,-12.0,29.47,WSW,248,0.0,0.0,44,0.00,CLR,,0.00,WeatherDisplay:10.37,2013-11-24 08:01:00,
2013-11-24 02:02:00,5.0,-12.2,29.47,WSW,248,0.0,0.0,44,0.00,CLR,,0.00,WeatherDisplay:10.37,2013-11-24 08:02:00,
2013-11-24 02:06:00,5.0,-12.2,29.47,West,270,0.0,0.0,44,0.00,CLR,,0.00,WeatherDisplay:10.37,2013-11-24 08:06:00,
2013-11-24 02:07:00,5.0,-12.2,29.47,West,270,0.0,0.0,44,0.00,CLR,,0.00,WeatherDisplay:10.37,2013-11-24 08:07:00,
2013-11-24 02:11:00,5.2,-12.0,29.47,West,270,0.0,0.0,44,0.00,CLR,,0.00,WeatherDisplay:10.37,2013-11-24 08:11:00,
2013-11-24 02:12:00,5.2,-12.0,29.47,WSW,248,1.2,0.0,44,0.00,CLR,,0.00,WeatherDisplay:10.37,2013-11-24 08:12:00,
2013-11-24 02:13:00,5.2,-12.0,29.47,WNW,292,1.2,0.0,44,0.00,CLR,,0.00,WeatherDisplay:10.37,2013-11-24 08:13:00,
2013-11-24 02:16:00,5.4,-11.9,29.47,WNW,292,0.0,0.0,44,0.00,CLR,,0.00,WeatherDisplay:10.37,2013-11-24 08:16:00,
2013-11-24 02:17:00,5.2,-12.0,29.47,WNW,292,0.0,0.0,44,0.00,CLR,,0.00,WeatherDisplay:10.37,2013-11-24 08:17:00,
2013-11-24 02:18:00,5.4,-11.9,29.47,WNW,292,0.0,0.0,44,0.00,CLR,,0.00,WeatherDisplay:10.37,2013-11-24 08:18:00,
2013-11-24 02:21:00,5.2,-12.0,29.47,WNW,292,0.0,0.0,44,0.00,CLR,,0.00,WeatherDisplay:10.37,2013-11-24 08:21:00,
2013-11-24 02:22:00,5.0,-12.2,29.47,WNW,292,0.0,0.0,44,0.00,CLR,,0.00,WeatherDisplay:10.37,2013-11-24 08:22:00,
2013-11-24 02:23:00,5.0,-12.2,29.47,WNW,292,0.0,0.0,44,0.00,CLR,,0.00,WeatherDisplay:10.37,2013-11-24 08:23:00,
2013-11-24 02:26:00,5.2,-12.0,29.47,WNW,292,0.0,0.0,44,0.00,CLR,,0.00,WeatherDisplay:10.37,2013-11-24 08:26:00,
2013-11-24 02:27:00,5.2,-12.0,29.47,WNW,292,0.0,0.0,44,0.00,CLR,,0.00,WeatherDisplay:10.37,2013-11-24 08:27:00,
2013-11-24 02:28:00,5.0,-12.2,29.47,WNW,292,0.0,0.0,44,0.00,CLR,,0.00,WeatherDisplay:10.37,2013-11-24 08:28:00,
2013-11-24 02:31:00,5.0,-12.2,29.47,WNW,292,0.0,0.0,44,0.00,CLR,,0.00,WeatherDisplay:10.37,2013-11-24 08:31:00,
2013-11-24 02:32:00,4.8,-12.4,29.47,SSE,158,0.0,0.0,44,0.00,CLR,,0.00,WeatherDisplay:10.37,2013-11-24 08:32:00,
2013-11-24 02:33:00,4.8,-12.4,29.47,ESE,112,0.0,0.0,44,0.00,CLR,,0.00,WeatherDisplay:10.37,2013-11-24 08:33:00,
2013-11-24 02:34:00,4.8,-12.4,29.47,ESE,112,1.2,1.2,44,0.00,CLR,,0.00,WeatherDisplay:10.37,2013-11-24 08:34:00,
2013-11-24 02:36:00,5.0,-12.2,29.47,ESE,112,1.2,1.2,44,0.00,CLR,,0.00,WeatherDisplay:10.37,2013-11-24 08:36:00,
2013-11-24 02:38:00,5.2,-12.0,29.47,WSW,248,1.2,0.0,44,0.00,CLR,,0.00,WeatherDisplay:10.37,2013-11-24 08:38:00,
2013-11-24 02:39:00,5.2,-12.0,29.47,SW,225,0.0,0.0,44,0.00,CLR,,0.00,WeatherDisplay:10.37,2013-11-24 08:39:00,
2013-11-24 02:41:00,5.4,-11.9,29.47,SW,225,2.3,0.0,44,0.00,CLR,,0.00,WeatherDisplay:10.37,2013-11-24 08:41:00,
2013-11-24 02:43:00,5.4,-11.9,29.47,SW,225,2.2,0.0,44,0.00,CLR,,0.00,WeatherDisplay:10.37,2013-11-24 08:43:00,
2013-11-24 02:44:00,5.4,-11.9,29.47,SW,225,2.3,2.3,44,0.00,CLR,,0.00,WeatherDisplay:10.37,2013-11-24 08:44:00,
2013-11-24 02:45:00,5.5,-11.7,29.47,WSW,248,2.3,2.3,44,0.00,CLR,,0.00,WeatherDisplay:10.37,2013-11-24 08:45:00,
2013-11-24 02:47:00,5.5,-11.7,29.47,WSW,248,2.4,2.4,44,0.00,CLR,,0.00,WeatherDisplay:10.37,2013-11-24 08:47:00,
2013-11-24 02:48:00,5.7,-11.5,29.47,WNW,292,3.5,3.5,44,0.00,CLR,,0.00,WeatherDisplay:10.37,2013-11-24 08:48:00,
2013-11-24 02:49:00,5.7,-11.5,29.47,WNW,292,1.2,0.0,44,0.00,CLR,,0.00,WeatherDisplay:10.37,2013-11-24 08:49:00,
2013-11-24 02:50:00,5.7,-11.5,29.47,NNW,338,2.0,0.0,44,0.00,CLR,,0.00,WeatherDisplay:10.37,2013-11-24 08:50:00,
2013-11-24 02:52:00,5.7,-11.5,29.47,NNW,338,0.0,0.0,44,0.00,CLR,,0.00,WeatherDisplay:10.37,2013-11-24 08:52:00,
2013-11-24 02:53:00,5.5,-11.7,29.47,WNW,292,1.2,0.0,44,0.00,CLR,,0.00,WeatherDisplay:10.37,2013-11-24 08:53:00,
2013-11-24 02:54:00,5.5,-11.7,29.47,WNW,292,1.2,1.2,44,0.00,CLR,,0.00,WeatherDisplay:10.37,2013-11-24 08:54:00,
2013-11-24 02:56:00,5.5,-11.7,29.47,West,270,0.0,0.0,44,0.00,CLR,,0.00,WeatherDisplay:10.37,2013-11-24 08:56:00,
2013-11-24 02:57:00,5.5,-11.7,29.47,West,270,1.2,0.0,44,0.00,CLR,,0.00,WeatherDisplay:10.37,2013-11-24 08:57:00,
2013-11-24 02:59:00,5.7,-11.5,29.47,NNE,22,2.3,2.3,44,0.00,CLR,,0.00,WeatherDisplay:10.37,2013-11-24 08:59:00,
2013-11-24 03:01:00,5.9,-11.4,29.47,WNW,292,2.3,2.3,44,0.00,CLR,,0.00,WeatherDisplay:10.37,2013-11-24 09:01:00,
2013-11-24 03:02:00,5.9,-11.4,29.47,WNW,292,2.3,0.0,44,0.00,CLR,,0.00,WeatherDisplay:10.37,2013-11-24 09:02:00,
2013-11-24 03:04:00,5.9,-11.4,29.47,WNW,292,0.0,0.0,44,0.00,CLR,,0.00,WeatherDisplay:10.37,2013-11-24 09:04:00,
2013-11-24 03:05:00,5.9,-11.4,29.47,WNW,292,0.0,0.0,44,0.00,CLR,,0.00,WeatherDisplay:10.37,2013-11-24 09:05:00,
2013-11-24 03:06:00,5.9,-11.4,29.47,WNW,292,0.0,0.0,44,0.00,CLR,,0.00,WeatherDisplay:10.37,2013-11-24 09:06:00,
2013-11-24 03:07:00,5.9,-11.4,29.47,SSW,202,0.0,0.0,44,0.00,CLR,,0.00,WeatherDisplay:10.37,2013-11-24 09:07:00,
2013-11-24 03:09:00,5.9,-11.4,29.47,SSW,202,0.0,0.0,44,0.00,CLR,,0.00,WeatherDisplay:10.37,2013-11-24 09:09:00,
2013-11-24 03:10:00,5.9,-11.4,29.47,SSW,202,0.0,0.0,44,0.00,CLR,,0.00,WeatherDisplay:10.37,2013-11-24 09:10:00,
2013-11-24 03:12:00,5.7,-11.5,29.47,SSW,202,0.0,0.0,44,0.00,CLR,,0.00,WeatherDisplay:10.37,2013-11-24 09:12:00,
2013-11-24 03:14:00,5.5,-11.7,29.47,SSW,202,0.0,0.0,44,0.00,CLR,,0.00,WeatherDisplay:10.37,2013-11-24 09:14:00,
2013-11-24 03:15:00,5.5,-11.7,29.47,SSW,202,0.0,0.0,44,0.00,CLR,,0.00,WeatherDisplay:10.37,2013-11-24 09:15:00,
2013-11-24 03:16:00,5.5,-11.7,29.47,ENE,68,2.3,2.3,44,0.00,CLR,,0.00,WeatherDisplay:10.37,2013-11-24 09:16:00,
2013-11-24 03:18:00,5.5,-11.7,29.47,ENE,68,1.4,1.4,44,0.00,CLR,,0.00,WeatherDisplay:10.37,2013-11-24 09:18:00,
2013-11-24 03:19:00,5.5,-11.7,29.47,ENE,68,1.4,1.4,44,0.00,CLR,,0.00,WeatherDisplay:10.37,2013-11-24 09:19:00,
2013-11-24 03:20:00,5.5,-11.7,29.47,ENE,68,1.2,1.2,44,0.00,CLR,,0.00,WeatherDisplay:10.37,2013-11-24 09:20:00,
2013-11-24 03:23:00,5.5,-11.7,29.47,ENE,68,0.0,0.0,44,0.00,CLR,,0.00,WeatherDisplay:10.37,2013-11-24 09:23:00,
2013-11-24 03:24:00,5.5,-11.7,29.47,WSW,248,0.0,0.0,44,0.00,CLR,,0.00,WeatherDisplay:10.37,2013-11-24 09:24:00,
2013-11-24 03:25:00,5.5,-11.7,29.47,West,270,1.2,1.2,44,0.00,CLR,,0.00,WeatherDisplay:10.37,2013-11-24 09:25:00,
2013-11-24 03:26:00,5.5,-11.7,29.47,SSW,202,1.2,0.0,44,0.00,CLR,,0.00,WeatherDisplay:10.37,2013-11-24 09:26:00,
2013-11-24 03:28:00,5.5,-11.7,29.47,North,0,2.3,2.3,44,0.00,CLR,,0.00,WeatherDisplay:10.37,2013-11-24 09:28:00,
2013-11-24 03:29:00,5.5,-11.7,29.47,North,0,1.2,1.2,44,0.00,CLR,,0.00,WeatherDisplay:10.37,2013-11-24 09:29:00,
2013-11-24 03:30:00,5.5,-11.7,29.47,North,0,0.0,0.0,44,0.00,CLR,,0.00,WeatherDisplay:10.37,2013-11-24 09:30:00,
2013-11-24 03:31:00,5.5,-11.7,29.47,North,0,1.2,0.0,44,0.00,CLR,,0.00,WeatherDisplay:10.37,2013-11-24 09:31:00,
2013-11-24 03:33:00,5.5,-11.7,29.47,North,0,1.6,0.0,44,0.00,CLR,,0.00,WeatherDisplay:10.37,2013-11-24 09:33:00,
2013-11-24 03:34:00,5.5,-11.7,29.47,North,0,1.4,1.4,44,0.00,CLR,,0.00,WeatherDisplay:10.37,2013-11-24 09:34:00,
2013-11-24 03:36:00,5.5,-11.7,29.47,North,0,1.2,0.0,44,0.00,CLR,,0.00,WeatherDisplay:10.37,2013-11-24 09:36:00,
2013-11-24 03:38:00,5.5,-11.7,29.47,North,0,1.4,1.4,44,0.00,CLR,,0.00,WeatherDisplay:10.37,2013-11-24 09:38:00,
2013-11-24 03:40:00,5.4,-11.9,29.44,North,0,2.0,2.0,44,0.00,CLR,,0.00,WeatherDisplay:10.37,2013-11-24 09:40:00,
2013-11-24 03:41:00,5.5,-11.7,29.44,North,0,2.3,2.3,44,0.00,CLR,,0.00,WeatherDisplay:10.37,2013-11-24 09:41:00,
2013-11-24 03:43:00,5.5,-11.7,29.44,North,0,1.2,1.2,44,0.00,CLR,,0.00,WeatherDisplay:10.37,2013-11-24 09:43:00,
2013-11-24 03:45:00,5.5,-11.7,29.44,North,0,1.2,1.2,44,0.00,CLR,,0.00,WeatherDisplay:10.37,2013-11-24 09:45:00,
2013-11-24 03:46:00,5.5,-11.7,29.44,North,0,2.3,2.3,44,0.00,CLR,,0.00,WeatherDisplay:10.37,2013-11-24 09:46:00,
2013-11-24 03:47:00,5.5,-11.7,29.44,North,0,0.0,0.0,44,0.00,CLR,,0.00,WeatherDisplay:10.37,2013-11-24 09:47:00,
2013-11-24 03:48:00,5.5,-11.7,29.44,North,0,0.0,0.0,44,0.00,CLR,,0.00,WeatherDisplay:10.37,2013-11-24 09:48:00,
2013-11-24 03:51:00,5.4,-11.9,29.44,North,0,0.0,0.0,44,0.00,CLR,,0.00,WeatherDisplay:10.37,2013-11-24 09:51:00,
2013-11-24 03:52:00,5.4,-11.9,29.44,North,0,0.0,0.0,44,0.00,CLR,,0.00,WeatherDisplay:10.37,2013-11-24 09:52:00,
2013-11-24 03:54:00,5.4,-11.9,29.44,North,0,0.0,0.0,44,0.00,CLR,,0.00,WeatherDisplay:10.37,2013-11-24 09:54:00,
2013-11-24 03:56:00,5.4,-11.9,29.44,North,0,0.0,0.0,44,0.00,CLR,,0.00,WeatherDisplay:10.37,2013-11-24 09:56:00,
2013-11-24 03:57:00,5.4,-11.9,29.44,North,0,0.0,0.0,44,0.00,CLR,,0.00,WeatherDisplay:10.37,2013-11-24 09:57:00,
2013-11-24 03:58:00,5.4,-11.9,29.44,North,0,0.0,0.0,44,0.00,CLR,,0.00,WeatherDisplay:10.37,2013-11-24 09:58:00,
2013-11-24 03:59:00,5.4,-11.9,29.44,North,0,0.0,0.0,44,0.00,CLR,,0.00,WeatherDisplay:10.37,2013-11-24 09:59:00,
2013-11-24 04:02:00,5.4,-11.9,29.44,North,0,1.4,1.4,44,0.00,CLR,,0.00,WeatherDisplay:10.37,2013-11-24 10:02:00,
2013-11-24 04:03:00,5.4,-11.9,29.44,North,0,1.2,1.4,44,0.00,CLR,,0.00,WeatherDisplay:10.37,2013-11-24 10:03:00,
2013-11-24 04:04:00,5.4,-11.9,29.44,North,0,1.4,1.4,44,0.00,CLR,,0.00,WeatherDisplay:10.37,2013-11-24 10:04:00,
2013-11-24 04:07:00,5.2,-12.0,29.44,North,0,0.0,0.0,44,0.00,CLR,,0.00,WeatherDisplay:10.37,2013-11-24 10:07:00,
2013-11-24 04:08:00,5.2,-12.0,29.44,North,0,0.0,0.0,44,0.00,CLR,,0.00,WeatherDisplay:10.37,2013-11-24 10:08:00,
2013-11-24 04:09:00,5.2,-12.0,29.44,North,0,0.0,0.0,44,0.00,CLR,,0.00,WeatherDisplay:10.37,2013-11-24 10:09:00,
2013-11-24 04:12:00,5.0,-12.2,29.41,North,0,1.4,1.4,44,0.00,CLR,,0.00,WeatherDisplay:10.37,2013-11-24 10:12:00,
2013-11-24 04:13:00,5.2,-12.0,29.41,North,0,1.2,1.2,44,0.00,CLR,,0.00,WeatherDisplay:10.37,2013-11-24 10:13:00,
2013-11-24 04:14:00,5.2,-12.0,29.41,North,0,1.2,0.0,44,0.00,CLR,,0.00,WeatherDisplay:10.37,2013-11-24 10:14:00,
2013-11-24 04:17:00,5.0,-12.2,29.41,North,0,0.0,0.0,44,0.00,CLR,,0.00,WeatherDisplay:10.37,2013-11-24 10:17:00,
2013-11-24 04:18:00,5.0,-12.2,29.41,North,0,0.0,0.0,44,0.00,CLR,,0.00,WeatherDisplay:10.37,2013-11-24 10:18:00,
2013-11-24 04:19:00,5.0,-12.2,29.41,North,0,0.0,0.0,44,0.00,CLR,,0.00,WeatherDisplay:10.37,2013-11-24 10:19:00,
2013-11-24 04:22:00,5.0,-12.2,29.41,North,0,1.2,0.0,44,0.00,CLR,,0.00,WeatherDisplay:10.37,2013-11-24 10:22:00,
2013-11-24 04:23:00,5.0,-12.2,29.41,North,0,0.0,0.0,44,0.00,CLR,,0.00,WeatherDisplay:10.37,2013-11-24 10:23:00,
2013-11-24 04:24:00,5.0,-12.2,29.41,North,0,0.0,0.0,44,0.00,CLR,,0.00,WeatherDisplay:10.37,2013-11-24 10:24:00,
2013-11-24 04:25:00,5.0,-12.2,29.44,North,0,0.0,0.0,44,0.00,CLR,,0.00,WeatherDisplay:10.37,2013-11-24 10:25:00,
2013-11-24 04:27:00,4.8,-12.4,29.44,North,0,1.2,1.2,44,0.00,CLR,,0.00,WeatherDisplay:10.37,2013-11-24 10:27:00,
2013-11-24 04:28:00,4.8,-12.4,29.44,North,0,1.4,1.4,44,0.00,CLR,,0.00,WeatherDisplay:10.37,2013-11-24 10:28:00,
2013-11-24 04:29:00,4.8,-12.4,29.44,North,0,1.2,1.2,44,0.00,CLR,,0.00,WeatherDisplay:10.37,2013-11-24 10:29:00,
2013-11-24 04:30:00,4.8,-12.4,29.44,North,0,1.4,1.4,44,0.00,CLR,,0.00,WeatherDisplay:10.37,2013-11-24 10:30:00,
2013-11-24 04:32:00,4.8,-12.4,29.44,West,270,2.3,2.3,44,0.00,CLR,,0.00,WeatherDisplay:10.37,2013-11-24 10:32:00,
2013-11-24 04:33:00,4.8,-12.4,29.44,West,270,2.3,2.3,44,0.00,CLR,,0.00,WeatherDisplay:10.37,2013-11-24 10:33:00,
2013-11-24 04:34:00,4.8,-12.4,29.44,West,270,2.4,2.4,44,0.00,CLR,,0.00,WeatherDisplay:10.37,2013-11-24 10:34:00,
2013-11-24 04:35:00,5.0,-12.2,29.44,West,270,2.4,2.4,44,0.00,CLR,,0.00,WeatherDisplay:10.37,2013-11-24 10:35:00,
2013-11-24 04:37:00,5.0,-12.2,29.44,West,270,2.3,2.3,44,0.00,CLR,,0.00,WeatherDisplay:10.37,2013-11-24 10:37:00,
2013-11-24 04:38:00,5.0,-12.2,29.44,West,270,2.3,2.3,44,0.00,CLR,,0.00,WeatherDisplay:10.37,2013-11-24 10:38:00,
2013-11-24 04:39:00,5.0,-12.2,29.44,West,270,1.2,1.2,44,0.00,CLR,,0.00,WeatherDisplay:10.37,2013-11-24 10:39:00,
2013-11-24 04:40:00,5.0,-12.2,29.41,West,270,0.0,0.0,44,0.00,CLR,,0.00,WeatherDisplay:10.37,2013-11-24 10:40:00,
2013-11-24 04:43:00,5.0,-12.2,29.41,West,270,0.0,0.0,44,0.00,CLR,,0.00,WeatherDisplay:10.37,2013-11-24 10:43:00,
2013-11-24 04:44:00,5.0,-12.2,29.41,West,268,0.0,0.0,44,0.00,CLR,,0.00,WeatherDisplay:10.37,2013-11-24 10:44:00,
2013-11-24 04:45:00,5.0,-12.2,29.41,WSW,248,0.0,0.0,44,0.00,CLR,,0.00,WeatherDisplay:10.37,2013-11-24 10:45:00,
2013-11-24 04:46:00,5.0,-12.2,29.41,WSW,248,1.6,0.0,44,0.00,CLR,,0.00,WeatherDisplay:10.37,2013-11-24 10:46:00,
2013-11-24 04:48:00,5.0,-12.2,29.41,West,270,1.6,1.6,44,0.00,CLR,,0.00,WeatherDisplay:10.37,2013-11-24 10:48:00,
2013-11-24 04:49:00,5.0,-12.2,29.41,West,265,1.0,2.0,44,0.00,CLR,,0.00,WeatherDisplay:10.37,2013-11-24 10:49:00,
2013-11-24 04:50:00,5.0,-12.2,29.41,West,270,1.4,1.4,44,0.00,CLR,,0.00,WeatherDisplay:10.37,2013-11-24 10:50:00,
2013-11-24 04:51:00,5.0,-12.2,29.41,West,270,1.2,1.2,44,0.00,CLR,,0.00,WeatherDisplay:10.37,2013-11-24 10:51:00,
2013-11-24 04:52:00,5.0,-12.2,29.41,West,270,1.2,1.2,44,0.00,CLR,,0.00,WeatherDisplay:10.37,2013-11-24 10:52:00,
2013-11-24 04:53:00,5.0,-12.2,29.41,West,270,0.0,0.0,44,0.00,CLR,,0.00,WeatherDisplay:10.37,2013-11-24 10:53:00,
2013-11-24 04:54:00,4.8,-12.4,29.41,West,270,0.0,0.0,44,0.00,CLR,,0.00,WeatherDisplay:10.37,2013-11-24 10:54:00,
2013-11-24 04:56:00,4.8,-12.4,29.44,WSW,248,1.2,1.2,44,0.00,CLR,,0.00,WeatherDisplay:10.37,2013-11-24 10:56:00,
2013-11-24 04:57:00,4.8,-12.4,29.44,WSW,248,0.0,0.0,44,0.00,CLR,,0.00,WeatherDisplay:10.37,2013-11-24 10:57:00,
2013-11-24 04:59:00,4.8,-12.4,29.44,WSW,248,0.0,0.0,44,0.00,CLR,,0.00,WeatherDisplay:10.37,2013-11-24 10:59:00,
2013-11-24 05:01:00,4.8,-12.4,29.44,WSW,248,0.0,0.0,44,0.00,CLR,,0.00,WeatherDisplay:10.37,2013-11-24 11:01:00,
2013-11-24 05:02:00,4.8,-12.4,29.44,WSW,248,0.0,0.0,44,0.00,CLR,,0.00,WeatherDisplay:10.37,2013-11-24 11:02:00,
2013-11-24 05:04:00,4.8,-12.4,29.44,WSW,248,0.0,0.0,44,0.00,CLR,,0.00,WeatherDisplay:10.37,2013-11-24 11:04:00,
2013-11-24 05:06:00,4.8,-12.4,29.44,SW,225,0.0,0.0,44,0.00,CLR,,0.00,WeatherDisplay:10.37,2013-11-24 11:06:00,
2013-11-24 05:07:00,4.8,-12.4,29.44,SW,225,0.0,0.0,44,0.00,CLR,,0.00,WeatherDisplay:10.37,2013-11-24 11:07:00,
2013-11-24 05:09:00,4.6,-12.5,29.44,SW,225,0.0,0.0,44,0.00,CLR,,0.00,WeatherDisplay:10.37,2013-11-24 11:09:00,
2013-11-24 05:11:00,4.6,-12.5,29.44,SW,225,0.0,0.0,44,0.00,CLR,,0.00,WeatherDisplay:10.37,2013-11-24 11:11:00,
2013-11-24 05:13:00,4.6,-12.5,29.44,SW,225,0.0,0.0,44,0.00,CLR,,0.00,WeatherDisplay:10.37,2013-11-24 11:13:00,
2013-11-24 05:14:00,4.5,-12.7,29.44,SW,225,0.0,0.0,44,0.00,CLR,,0.00,WeatherDisplay:10.37,2013-11-24 11:14:00,
2013-11-24 05:15:00,4.5,-12.7,29.44,SW,225,0.0,0.0,44,0.00,CLR,,0.00,WeatherDisplay:10.37,2013-11-24 11:15:00,
2013-11-24 05:16:00,4.6,-12.5,29.44,SW,225,0.0,0.0,44,0.00,CLR,,0.00,WeatherDisplay:10.37,2013-11-24 11:16:00,
2013-11-24 05:18:00,4.6,-12.5,29.44,SW,225,0.0,0.0,44,0.00,CLR,,0.00,WeatherDisplay:10.37,2013-11-24 11:18:00,
2013-11-24 05:19:00,4.6,-12.5,29.44,SW,225,0.0,0.0,44,0.00,CLR,,0.00,WeatherDisplay:10.37,2013-11-24 11:19:00,
2013-11-24 05:20:00,4.6,-12.5,29.44,SW,225,0.0,0.0,44,0.00,CLR,,0.00,WeatherDisplay:10.37,2013-11-24 11:20:00,
2013-11-24 05:21:00,4.6,-12.5,29.44,SW,225,0.0,0.0,44,0.00,CLR,,0.00,WeatherDisplay:10.37,2013-11-24 11:21:00,
2013-11-24 05:23:00,4.5,-12.7,29.44,SW,225,0.0,0.0,44,0.00,CLR,,0.00,WeatherDisplay:10.37,2013-11-24 11:23:00,
2013-11-24 05:24:00,4.5,-12.7,29.44,West,270,1.6,0.0,44,0.00,CLR,,0.00,WeatherDisplay:10.37,2013-11-24 11:24:00,
2013-11-24 05:25:00,4.5,-12.7,29.44,West,270,1.2,1.2,44,0.00,CLR,,0.00,WeatherDisplay:10.37,2013-11-24 11:25:00,
2013-11-24 05:26:00,4.5,-12.7,29.44,West,270,1.2,0.0,44,0.00,CLR,,0.00,WeatherDisplay:10.37,2013-11-24 11:26:00,
2013-11-24 05:28:00,4.5,-12.7,29.44,West,270,0.0,0.0,44,0.00,CLR,,0.00,WeatherDisplay:10.37,2013-11-24 11:28:00,
2013-11-24 05:29:00,4.5,-12.7,29.44,West,270,0.0,0.0,44,0.00,CLR,,0.00,WeatherDisplay:10.37,2013-11-24 11:29:00,
2013-11-24 05:30:00,4.5,-12.7,29.44,West,270,0.0,0.0,44,0.00,CLR,,0.00,WeatherDisplay:10.37,2013-11-24 11:30:00,
2013-11-24 05:31:00,4.5,-12.7,29.44,West,270,0.0,0.0,44,0.00,CLR,,0.00,WeatherDisplay:10.37,2013-11-24 11:31:00,
2013-11-24 05:34:00,4.3,-12.9,29.44,West,270,0.0,0.0,44,0.00,CLR,,0.00,WeatherDisplay:10.37,2013-11-24 11:34:00,
2013-11-24 05:35:00,4.3,-12.9,29.44,SW,225,0.0,0.0,44,0.00,CLR,,0.00,WeatherDisplay:10.37,2013-11-24 11:35:00,
2013-11-24 05:36:00,4.3,-12.9,29.44,SW,225,0.0,0.0,44,0.00,CLR,,0.00,WeatherDisplay:10.37,2013-11-24 11:36:00,
2013-11-24 05:39:00,4.3,-12.9,29.44,West,270,1.2,0.0,44,0.00,CLR,,0.00,WeatherDisplay:10.37,2013-11-24 11:39:00,
2013-11-24 05:40:00,4.3,-12.9,29.47,West,270,0.0,0.0,44,0.00,CLR,,0.00,WeatherDisplay:10.37,2013-11-24 11:40:00,
2013-11-24 05:41:00,4.1,-13.0,29.47,West,270,0.0,0.0,44,0.00,CLR,,0.00,WeatherDisplay:10.37,2013-11-24 11:41:00,
2013-11-24 05:44:00,4.1,-13.0,29.47,West,270,0.0,0.0,44,0.00,CLR,,0.00,WeatherDisplay:10.37,2013-11-24 11:44:00,
2013-11-24 05:45:00,4.1,-13.0,29.47,West,270,0.0,0.0,44,0.00,CLR,,0.00,WeatherDisplay:10.37,2013-11-24 11:45:00,
2013-11-24 05:46:00,4.1,-13.0,29.47,West,270,0.0,0.0,44,0.00,CLR,,0.00,WeatherDisplay:10.37,2013-11-24 11:46:00,
2013-11-24 05:49:00,3.9,-13.2,29.47,West,270,0.0,0.0,44,0.00,CLR,,0.00,WeatherDisplay:10.37,2013-11-24 11:49:00,
2013-11-24 05:50:00,3.9,-13.2,29.47,West,270,0.0,0.0,44,0.00,CLR,,0.00,WeatherDisplay:10.37,2013-11-24 11:50:00,
2013-11-24 05:51:00,3.7,-13.4,29.47,West,270,0.0,0.0,44,0.00,CLR,,0.00,WeatherDisplay:10.37,2013-11-24 11:51:00,
2013-11-24 05:52:00,3.7,-13.4,29.47,West,270,0.0,0.0,44,0.00,CLR,,0.00,WeatherDisplay:10.37,2013-11-24 11:52:00,
2013-11-24 05:54:00,3.7,-13.4,29.46,West,270,0.0,0.0,44,0.00,CLR,,0.00,WeatherDisplay:10.37,2013-11-24 11:54:00,
2013-11-24 05:55:00,3.7,-13.4,29.44,West,270,0.0,0.0,44,0.00,CLR,,0.00,WeatherDisplay:10.37,2013-11-24 11:55:00,
2013-11-24 05:56:00,3.7,-13.4,29.44,West,270,0.0,0.0,44,0.00,CLR,,0.00,WeatherDisplay:10.37,2013-11-24 11:56:00,
2013-11-24 05:57:00,3.9,-13.2,29.44,West,270,0.0,0.0,44,0.00,CLR,,0.00,WeatherDisplay:10.37,2013-11-24 11:57:00,
2013-11-24 05:59:00,4.1,-13.0,29.44,West,270,0.0,0.0,44,0.00,CLR,,0.00,WeatherDisplay:10.37,2013-11-24 11:59:00,
2013-11-24 06:00:00,4.1,-13.0,29.44,West,270,0.0,0.0,44,0.00,CLR,,0.00,WeatherDisplay:10.37,2013-11-24 12:00:00,
2013-11-24 06:01:00,4.1,-13.0,29.44,West,270,0.0,0.0,44,0.00,CLR,,0.00,WeatherDisplay:10.37,2013-11-24 12:01:00,
2013-11-24 06:02:00,4.1,-13.0,29.44,West,270,0.0,0.0,44,0.00,CLR,,0.00,WeatherDisplay:10.37,2013-11-24 12:02:00,
2013-11-24 06:05:00,4.1,-13.0,29.44,West,270,0.0,0.0,44,0.00,CLR,,0.00,WeatherDisplay:10.37,2013-11-24 12:05:00,
2013-11-24 06:06:00,4.1,-13.0,29.44,West,270,0.0,0.0,44,0.00,CLR,,0.00,WeatherDisplay:10.37,2013-11-24 12:06:00,
2013-11-24 06:07:00,4.1,-13.0,29.44,West,270,1.2,1.2,44,0.00,CLR,,0.00,WeatherDisplay:10.37,2013-11-24 12:07:00,
2013-11-24 06:10:00,4.1,-13.0,29.44,West,270,0.0,0.0,44,0.00,CLR,,0.00,WeatherDisplay:10.37,2013-11-24 12:10:00,
2013-11-24 06:11:00,4.1,-13.0,29.44,West,270,0.0,0.0,44,0.00,CLR,,0.00,WeatherDisplay:10.37,2013-11-24 12:11:00,
2013-11-24 06:12:00,4.1,-13.0,29.44,West,270,0.0,0.0,44,0.00,CLR,,0.00,WeatherDisplay:10.37,2013-11-24 12:12:00,
2013-11-24 06:15:00,4.1,-13.0,29.44,West,270,0.0,0.0,44,0.00,CLR,,0.00,WeatherDisplay:10.37,2013-11-24 12:15:00,
2013-11-24 06:16:00,4.1,-13.0,29.44,West,270,0.0,0.0,44,0.00,CLR,,0.00,WeatherDisplay:10.37,2013-11-24 12:16:00,
2013-11-24 06:17:00,4.1,-13.0,29.44,West,270,0.0,0.0,44,0.00,CLR,,0.00,WeatherDisplay:10.37,2013-11-24 12:17:00,
2013-11-24 06:20:00,4.3,-12.9,29.44,WSW,248,0.0,0.0,44,0.00,CLR,,0.00,WeatherDisplay:10.37,2013-11-24 12:20:00,
2013-11-24 06:22:00,4.1,-13.0,29.44,WSW,248,0.0,0.0,44,0.00,CLR,,0.00,WeatherDisplay:10.37,2013-11-24 12:22:00,
2013-11-24 06:26:00,4.3,-12.9,29.41,West,270,0.0,0.0,44,0.00,CLR,,0.00,WeatherDisplay:10.37,2013-11-24 12:26:00,
2013-11-24 06:27:00,4.3,-12.9,29.41,West,270,0.0,0.0,44,0.00,CLR,,0.00,WeatherDisplay:10.37,2013-11-24 12:27:00,
2013-11-24 06:28:00,4.3,-12.9,29.41,West,270,0.0,0.0,44,0.00,CLR,,0.00,WeatherDisplay:10.37,2013-11-24 12:28:00,
2013-11-24 06:31:00,4.3,-12.9,29.41,West,270,0.0,0.0,44,0.00,CLR,,0.00,WeatherDisplay:10.37,2013-11-24 12:31:00,
2013-11-24 06:32:00,4.3,-12.9,29.41,West,270,0.0,0.0,44,0.00,CLR,,0.00,WeatherDisplay:10.37,2013-11-24 12:32:00,
2013-11-24 06:33:00,4.3,-12.9,29.41,West,270,0.0,0.0,44,0.00,CLR,,0.00,WeatherDisplay:10.37,2013-11-24 12:33:00,
2013-11-24 06:37:00,4.3,-12.9,29.41,SW,225,0.0,0.0,44,0.00,CLR,,0.00,WeatherDisplay:10.37,2013-11-24 12:37:00,
2013-11-24 06:38:00,4.3,-12.9,29.41,SW,225,0.0,0.0,44,0.00,CLR,,0.00,WeatherDisplay:10.37,2013-11-24 12:38:00,
2013-11-24 06:42:00,4.5,-12.7,29.41,SW,225,0.0,0.0,44,0.00,CLR,,0.00,WeatherDisplay:10.37,2013-11-24 12:42:00,
2013-11-24 06:43:00,4.5,-12.7,29.41,SW,225,2.0,0.0,44,0.00,CLR,,0.00,WeatherDisplay:10.37,2013-11-24 12:43:00,
2013-11-24 06:44:00,4.5,-12.7,29.41,SW,225,2.3,2.3,44,0.00,CLR,,0.00,WeatherDisplay:10.37,2013-11-24 12:44:00,
2013-11-24 06:47:00,4.5,-12.7,29.41,WSW,248,1.2,1.2,44,0.00,CLR,,0.00,WeatherDisplay:10.37,2013-11-24 12:47:00,
2013-11-24 06:48:00,4.5,-12.7,29.41,SW,225,1.2,0.0,44,0.00,CLR,,0.00,WeatherDisplay:10.37,2013-11-24 12:48:00,
2013-11-24 06:49:00,4.5,-12.7,29.41,SW,225,2.3,2.3,44,0.00,CLR,,0.00,WeatherDisplay:10.37,2013-11-24 12:49:00,
2013-11-24 06:52:00,4.5,-12.7,29.41,WNW,292,1.6,0.0,44,0.00,CLR,,0.00,WeatherDisplay:10.37,2013-11-24 12:52:00,
2013-11-24 06:53:00,4.5,-12.7,29.41,WNW,292,1.2,1.2,44,0.00,CLR,,0.00,WeatherDisplay:10.37,2013-11-24 12:53:00,
2013-11-24 06:54:00,4.5,-12.7,29.41,WNW,292,1.2,0.0,44,0.00,CLR,,0.00,WeatherDisplay:10.37,2013-11-24 12:54:00,
2013-11-24 06:57:00,4.6,-12.5,29.44,West,270,0.0,0.0,44,0.00,CLR,,0.00,WeatherDisplay:10.37,2013-11-24 12:57:00,
2013-11-24 06:58:00,4.6,-12.5,29.44,West,270,0.0,0.0,44,0.00,CLR,,0.00,WeatherDisplay:10.37,2013-11-24 12:58:00,
2013-11-24 06:59:00,4.6,-12.5,29.44,West,270,0.0,0.0,44,0.00,CLR,,0.00,WeatherDisplay:10.37,2013-11-24 12:59:00,
2013-11-24 07:03:00,4.6,-12.5,29.44,West,270,0.0,0.0,44,0.00,CLR,,0.00,WeatherDisplay:10.37,2013-11-24 13:03:00,
2013-11-24 07:04:00,4.6,-12.5,29.44,West,270,0.0,0.0,44,0.00,CLR,,0.00,WeatherDisplay:10.37,2013-11-24 13:04:00,
2013-11-24 07:05:00,4.5,-12.7,29.44,West,270,0.0,0.0,44,0.00,CLR,,0.00,WeatherDisplay:10.37,2013-11-24 13:05:00,
2013-11-24 07:08:00,4.8,-12.4,29.44,SSW,202,0.0,0.0,44,0.00,CLR,,0.00,WeatherDisplay:10.37,2013-11-24 13:08:00,
2013-11-24 07:09:00,4.8,-12.4,29.44,SSW,202,0.0,0.0,44,0.00,CLR,,0.00,WeatherDisplay:10.37,2013-11-24 13:09:00,
2013-11-24 07:10:00,5.0,-12.2,29.41,SSW,202,0.0,0.0,44,0.00,CLR,,0.00,WeatherDisplay:10.37,2013-11-24 13:10:00,
2013-11-24 07:14:00,5.4,-11.9,29.41,SSW,202,0.0,0.0,44,0.00,CLR,,0.00,WeatherDisplay:10.37,2013-11-24 13:14:00,
2013-11-24 07:15:00,5.4,-11.9,29.41,SSW,202,0.0,0.0,44,0.00,CLR,,0.00,WeatherDisplay:10.37,2013-11-24 13:15:00,
2013-11-24 07:16:00,5.4,-11.9,29.41,SSW,202,0.0,0.0,44,0.00,CLR,,0.00,WeatherDisplay:10.37,2013-11-24 13:16:00,
2013-11-24 07:19:00,5.5,-11.7,29.41,SSW,202,0.0,0.0,44,0.00,CLR,,0.00,WeatherDisplay:10.37,2013-11-24 13:19:00,
2013-11-24 07:20:00,5.5,-11.7,29.41,SSW,202,0.0,0.0,44,0.00,CLR,,0.00,WeatherDisplay:10.37,2013-11-24 13:20:00,
2013-11-24 07:21:00,5.5,-11.7,29.41,SSW,202,0.0,0.0,44,0.00,CLR,,0.00,WeatherDisplay:10.37,2013-11-24 13:21:00,
2013-11-24 07:22:00,5.5,-11.7,29.41,SSW,202,0.0,0.0,44,0.00,CLR,,0.00,WeatherDisplay:10.37,2013-11-24 13:22:00,
2013-11-24 07:24:00,5.8,-11.5,29.42,SSW,202,0.0,0.0,44,0.00,CLR,,0.00,WeatherDisplay:10.37,2013-11-24 13:24:00,
2013-11-24 07:25:00,5.9,-11.4,29.44,SSW,202,0.0,0.0,44,0.00,CLR,,0.00,WeatherDisplay:10.37,2013-11-24 13:25:00,
2013-11-24 07:26:00,5.9,-11.4,29.44,SSW,202,0.0,0.0,44,0.00,CLR,,0.00,WeatherDisplay:10.37,2013-11-24 13:26:00,
2013-11-24 07:27:00,6.1,-11.2,29.44,SSW,202,0.0,0.0,44,0.00,CLR,,0.00,WeatherDisplay:10.37,2013-11-24 13:27:00,
2013-11-24 07:29:00,6.5,-10.8,29.44,SSW,202,0.0,0.0,44,0.00,CLR,,0.00,WeatherDisplay:10.37,2013-11-24 13:29:00,
2013-11-24 07:30:00,6.8,-10.5,29.44,SSW,202,0.0,0.0,44,0.00,CLR,,0.00,WeatherDisplay:10.37,2013-11-24 13:30:00,
2013-11-24 07:31:00,6.8,-10.5,29.44,WSW,248,1.2,1.2,44,0.00,CLR,,0.00,WeatherDisplay:10.37,2013-11-24 13:31:00,
2013-11-24 07:32:00,7.2,-10.2,29.44,WSW,248,1.2,0.0,44,0.00,CLR,,0.00,WeatherDisplay:10.37,2013-11-24 13:32:00,
2013-11-24 07:35:00,7.0,-10.4,29.44,SW,225,2.3,2.3,44,0.00,CLR,,0.00,WeatherDisplay:10.37,2013-11-24 13:35:00,
2013-11-24 07:36:00,7.2,-10.2,29.44,SW,225,2.3,0.0,44,0.00,CLR,,0.00,WeatherDisplay:10.37,2013-11-24 13:36:00,
2013-11-24 07:37:00,7.2,-10.2,29.44,SW,225,0.0,0.0,44,0.00,CLR,,0.00,WeatherDisplay:10.37,2013-11-24 13:37:00,
2013-11-24 07:38:00,7.2,-10.2,29.44,SW,225,0.0,0.0,44,0.00,CLR,,0.00,WeatherDisplay:10.37,2013-11-24 13:38:00,
2013-11-24 07:40:00,7.7,-9.7,29.44,SW,225,0.0,0.0,44,0.00,CLR,,0.00,WeatherDisplay:10.37,2013-11-24 13:40:00,
2013-11-24 07:42:00,8.6,-8.9,29.44,SW,225,0.0,0.0,44,0.00,CLR,,0.00,WeatherDisplay:10.37,2013-11-24 13:42:00,
2013-11-24 07:43:00,9.0,-8.6,29.44,SW,225,0.0,0.0,44,0.00,CLR,,0.00,WeatherDisplay:10.37,2013-11-24 13:43:00,
2013-11-24 07:45:00,9.5,-8.1,29.44,West,270,0.0,0.0,44,0.00,CLR,,0.00,WeatherDisplay:10.37,2013-11-24 13:45:00,
2013-11-24 07:46:00,9.5,-8.1,29.44,West,270,0.0,0.0,44,0.00,CLR,,0.00,WeatherDisplay:10.37,2013-11-24 13:46:00,
2013-11-24 07:47:00,9.7,-7.9,29.44,West,270,0.0,0.0,44,0.00,CLR,,0.00,WeatherDisplay:10.37,2013-11-24 13:47:00,
2013-11-24 07:48:00,10.0,-7.6,29.44,West,270,0.0,0.0,44,0.00,CLR,,0.00,WeatherDisplay:10.37,2013-11-24 13:48:00,
2013-11-24 07:51:00,10.8,-6.9,29.44,West,270,0.0,0.0,44,0.00,CLR,,0.00,WeatherDisplay:10.37,2013-11-24 13:51:00,
2013-11-24 07:52:00,10.9,-6.7,29.44,West,270,0.0,0.0,44,0.00,CLR,,0.00,WeatherDisplay:10.37,2013-11-24 13:52:00,
2013-11-24 07:53:00,11.7,-6.1,29.44,West,270,0.0,0.0,44,0.00,CLR,,0.00,WeatherDisplay:10.37,2013-11-24 13:53:00,
2013-11-24 07:56:00,13.1,-4.8,29.44,South,180,0.0,0.0,44,0.00,CLR,,0.00,WeatherDisplay:10.37,2013-11-24 13:56:00,
2013-11-24 07:57:00,13.5,-4.4,29.44,South,180,0.0,0.0,44,0.00,CLR,,0.00,WeatherDisplay:10.37,2013-11-24 13:57:00,
2013-11-24 07:58:00,13.6,-4.3,29.44,South,180,0.0,0.0,44,0.00,CLR,,0.00,WeatherDisplay:10.37,2013-11-24 13:58:00,
2013-11-24 08:00:00,14.0,5.7,29.44,South,180,0.0,0.0,69,0.00,CLR,,0.00,WeatherDisplay:10.37,2013-11-24 14:00:00,
2013-11-24 08:01:00,14.5,5.9,29.44,South,180,0.0,0.0,68,0.00,CLR,,0.00,WeatherDisplay:10.37,2013-11-24 14:01:00,
2013-11-24 08:02:00,14.5,5.9,29.44,South,180,0.0,0.0,68,0.00,CLR,,0.00,WeatherDisplay:10.37,2013-11-24 14:02:00,
2013-11-24 08:03:00,14.5,5.9,29.44,South,180,0.0,0.0,68,0.00,CLR,,0.00,WeatherDisplay:10.37,2013-11-24 14:03:00,
2013-11-24 08:05:00,15.3,6.3,29.44,South,180,0.0,0.0,67,0.00,CLR,,0.00,WeatherDisplay:10.37,2013-11-24 14:05:00,
2013-11-24 08:06:00,16.3,7.0,29.44,South,180,0.0,0.0,66,0.00,CLR,,0.00,WeatherDisplay:10.37,2013-11-24 14:06:00,
2013-11-24 08:07:00,16.3,7.0,29.44,South,180,0.0,0.0,66,0.00,CLR,,0.00,WeatherDisplay:10.37,2013-11-24 14:07:00,
2013-11-24 08:09:00,16.5,7.1,29.44,South,180,0.0,0.0,66,0.00,CLR,,0.00,WeatherDisplay:10.37,2013-11-24 14:09:00,
2013-11-24 08:10:00,16.7,7.3,29.44,South,180,0.0,0.0,66,0.00,CLR,,0.00,WeatherDisplay:10.37,2013-11-24 14:10:00,
2013-11-24 08:12:00,17.1,7.6,29.44,South,180,0.0,0.0,66,0.00,CLR,,0.00,WeatherDisplay:10.37,2013-11-24 14:12:00,
2013-11-24 08:14:00,18.7,9.2,29.44,South,180,0.0,0.0,66,0.00,CLR,,0.00,WeatherDisplay:10.37,2013-11-24 14:14:00,
2013-11-24 08:16:00,18.9,8.7,29.44,South,180,0.0,0.0,64,0.00,CLR,,0.00,WeatherDisplay:10.37,2013-11-24 14:16:00,
2013-11-24 08:17:00,19.0,9.5,29.44,South,180,0.0,0.0,66,0.00,CLR,,0.00,WeatherDisplay:10.37,2013-11-24 14:17:00,
2013-11-24 08:20:00,18.5,8.3,29.44,North,0,2.3,2.3,64,0.00,CLR,,0.00,WeatherDisplay:10.37,2013-11-24 14:20:00,
2013-11-24 08:21:00,18.7,7.8,29.44,North,0,1.2,1.2,62,0.00,CLR,,0.00,WeatherDisplay:10.37,2013-11-24 14:21:00,
2013-11-24 08:22:00,18.9,8.0,29.44,North,0,1.2,1.2,62,0.00,CLR,,0.00,WeatherDisplay:10.37,2013-11-24 14:22:00,
2013-11-24 08:26:00,17.6,4.9,29.44,WNW,292,3.5,3.5,57,0.00,CLR,,0.00,WeatherDisplay:10.37,2013-11-24 14:26:00,
2013-11-24 08:27:00,17.6,4.9,29.44,SSW,202,3.5,3.5,57,0.00,CLR,,0.00,WeatherDisplay:10.37,2013-11-24 14:27:00,
2013-11-24 08:28:00,17.6,4.9,29.44,WSW,248,3.5,3.5,57,0.00,CLR,,0.00,WeatherDisplay:10.37,2013-11-24 14:28:00,
2013-11-24 08:32:00,17.8,3.9,29.44,SSE,158,2.3,2.3,54,0.00,CLR,,0.00,WeatherDisplay:10.37,2013-11-24 14:32:00,
2013-11-24 08:33:00,18.0,3.3,29.44,SW,225,4.6,4.6,52,0.00,CLR,,0.00,WeatherDisplay:10.37,2013-11-24 14:33:00,
2013-11-24 08:34:00,18.0,3.3,29.44,SSW,202,5.8,5.8,52,0.00,CLR,,0.00,WeatherDisplay:10.37,2013-11-24 14:34:00,
2013-11-24 08:37:00,18.3,3.2,29.44,SSW,202,3.5,3.5,51,0.00,CLR,,0.00,WeatherDisplay:10.37,2013-11-24 14:37:00,
2013-11-24 08:38:00,17.4,1.5,29.44,WSW,248,5.8,5.8,49,0.00,CLR,,0.00,WeatherDisplay:10.37,2013-11-24 14:38:00,
2013-11-24 08:39:00,17.8,1.8,29.44,SSW,202,5.8,5.8,49,0.00,CLR,,0.00,WeatherDisplay:10.37,2013-11-24 14:39:00,
2013-11-24 08:42:00,18.5,2.9,29.44,NNW,338,2.3,2.3,50,0.00,CLR,,0.00,WeatherDisplay:10.37,2013-11-24 14:42:00,
2013-11-24 08:43:00,18.5,2.9,29.44,North,0,2.3,2.3,50,0.00,CLR,,0.00,WeatherDisplay:10.37,2013-11-24 14:43:00,
2013-11-24 08:44:00,19.2,4.0,29.44,SW,225,2.3,2.3,51,0.00,CLR,,0.00,WeatherDisplay:10.37,2013-11-24 14:44:00,
2013-11-24 08:48:00,19.6,3.5,29.44,ESE,112,3.5,3.5,49,0.00,CLR,,0.00,WeatherDisplay:10.37,2013-11-24 14:48:00,
2013-11-24 08:49:00,19.8,4.1,29.44,SSW,202,2.3,2.3,50,0.00,CLR,,0.00,WeatherDisplay:10.37,2013-11-24 14:49:00,
2013-11-24 08:53:00,19.8,2.8,29.44,South,180,5.8,5.8,47,0.00,CLR,,0.00,WeatherDisplay:10.37,2013-11-24 14:53:00,
2013-11-24 08:54:00,19.6,2.6,29.44,SW,225,3.5,3.5,47,0.00,CLR,,0.00,WeatherDisplay:10.37,2013-11-24 14:54:00,
2013-11-24 08:55:00,19.6,2.6,29.44,SSW,202,4.6,4.6,47,0.00,CLR,,0.00,WeatherDisplay:10.37,2013-11-24 14:55:00,
2013-11-24 08:58:00,19.6,2.1,29.44,WSW,248,2.3,2.3,46,0.00,CLR,,0.00,WeatherDisplay:10.37,2013-11-24 14:58:00,
2013-11-24 08:59:00,19.9,2.5,29.44,WSW,248,5.4,5.4,46,0.00,CLR,,0.00,WeatherDisplay:10.37,2013-11-24 14:59:00,
2013-11-24 09:00:00,19.8,2.3,29.44,South,180,5.8,5.8,46,0.00,CLR,,0.00,WeatherDisplay:10.37,2013-11-24 15:00:00,
2013-11-24 09:03:00,20.1,2.1,29.44,SW,225,4.6,4.6,45,0.00,CLR,,0.00,WeatherDisplay:10.37,2013-11-24 15:03:00,
2013-11-24 09:04:00,20.1,2.1,29.44,WSW,248,4.6,4.6,45,0.00,CLR,,0.00,WeatherDisplay:10.37,2013-11-24 15:04:00,
2013-11-24 09:05:00,20.3,2.3,29.44,NW,315,3.5,3.5,45,0.00,CLR,,0.00,WeatherDisplay:10.37,2013-11-24 15:05:00,
2013-11-24 09:08:00,20.3,1.8,29.44,West,270,5.8,5.8,44,0.00,CLR,,0.00,WeatherDisplay:10.37,2013-11-24 15:08:00,
2013-11-24 09:09:00,20.7,2.2,29.44,NNE,22,4.6,4.6,44,0.00,CLR,,0.00,WeatherDisplay:10.37,2013-11-24 15:09:00,
2013-11-24 09:10:00,20.7,2.2,29.44,WSW,248,4.6,4.6,44,0.00,CLR,,0.00,WeatherDisplay:10.37,2013-11-24 15:10:00,
2013-11-24 09:13:00,19.9,1.5,29.44,SW,225,5.8,5.8,44,0.00,CLR,,0.00,WeatherDisplay:10.37,2013-11-24 15:13:00,
2013-11-24 09:14:00,20.3,1.8,29.44,NE,45,5.8,5.8,44,0.00,CLR,,0.00,WeatherDisplay:10.37,2013-11-24 15:14:00,
2013-11-24 09:15:00,20.3,1.8,29.44,SSW,202,2.3,2.3,44,0.00,CLR,,0.00,WeatherDisplay:10.37,2013-11-24 15:15:00,
2013-11-24 09:16:00,19.9,1.5,29.44,WSW,248,3.8,3.8,44,0.00,CLR,,0.00,WeatherDisplay:10.37,2013-11-24 15:16:00,
2013-11-24 09:18:00,21.0,2.5,29.44,NNE,22,3.5,3.5,44,0.00,CLR,,0.00,WeatherDisplay:10.37,2013-11-24 15:18:00,
2013-11-24 09:20:00,20.7,1.7,29.44,WSW,248,5.8,5.8,43,0.00,CLR,,0.00,WeatherDisplay:10.37,2013-11-24 15:20:00,
2013-11-24 09:21:00,20.8,1.8,29.44,South,180,3.5,3.5,43,0.00,CLR,,0.00,WeatherDisplay:10.37,2013-11-24 15:21:00,
2013-11-24 09:22:00,21.2,2.2,29.44,SSW,202,3.5,3.5,43,0.00,CLR,,0.00,WeatherDisplay:10.37,2013-11-24 15:22:00,
2013-11-24 09:23:00,21.4,2.3,29.44,West,270,3.5,3.5,43,0.00,CLR,,0.00,WeatherDisplay:10.37,2013-11-24 15:23:00,
2013-11-24 09:25:00,21.9,2.8,29.41,South,180,3.6,3.8,43,0.00,CLR,,0.00,WeatherDisplay:10.37,2013-11-24 15:25:00,
2013-11-24 09:26:00,21.9,2.8,29.41,North,0,5.8,5.8,43,0.00,CLR,,0.00,WeatherDisplay:10.37,2013-11-24 15:26:00,
2013-11-24 09:27:00,21.6,2.0,29.41,SSW,202,5.6,5.6,42,0.00,CLR,,0.00,WeatherDisplay:10.37,2013-11-24 15:27:00,
2013-11-24 09:28:00,21.7,2.1,29.41,NW,315,6.9,6.9,42,0.00,CLR,,0.00,WeatherDisplay:10.37,2013-11-24 15:28:00,
2013-11-24 09:31:00,22.1,2.5,29.41,SSW,202,6.9,6.9,42,0.00,CLR,,0.00,WeatherDisplay:10.37,2013-11-24 15:31:00,
2013-11-24 09:32:00,21.4,1.8,29.41,SSW,202,4.6,4.6,42,0.00,CLR,,0.00,WeatherDisplay:10.37,2013-11-24 15:32:00,
2013-11-24 09:33:00,20.7,1.2,29.41,South,180,3.5,3.6,42,0.00,CLR,,0.00,WeatherDisplay:10.37,2013-11-24 15:33:00,
2013-11-24 09:34:00,20.7,0.6,29.41,WSW,248,8.1,8.1,41,0.00,CLR,,0.00,WeatherDisplay:10.37,2013-11-24 15:34:00,
2013-11-24 09:37:00,20.3,0.8,29.41,SSW,202,5.4,5.4,42,0.00,CLR,,0.00,WeatherDisplay:10.37,2013-11-24 15:37:00,
2013-11-24 09:38:00,20.1,0.7,29.41,SSW,202,5.8,5.8,42,0.00,CLR,,0.00,WeatherDisplay:10.37,2013-11-24 15:38:00,
2013-11-24 09:39:00,20.1,0.7,29.41,SSW,202,5.8,5.8,42,0.00,CLR,,0.00,WeatherDisplay:10.37,2013-11-24 15:39:00,
2013-11-24 09:42:00,19.8,0.3,29.44,SE,135,4.6,4.6,42,0.00,CLR,,0.00,WeatherDisplay:10.37,2013-11-24 15:42:00,
2013-11-24 09:43:00,19.8,0.3,29.44,SSE,158,4.6,4.6,42,0.00,CLR,,0.00,WeatherDisplay:10.37,2013-11-24 15:43:00,
2013-11-24 09:44:00,19.8,0.3,29.44,South,180,4.6,4.6,42,0.00,CLR,,0.00,WeatherDisplay:10.37,2013-11-24 15:44:00,
2013-11-24 09:47:00,20.3,0.8,29.44,South,180,5.8,5.8,42,0.00,CLR,,0.00,WeatherDisplay:10.37,2013-11-24 15:47:00,
2013-11-24 09:48:00,20.8,1.3,29.44,WSW,248,5.8,5.8,42,0.00,CLR,,0.00,WeatherDisplay:10.37,2013-11-24 15:48:00,
2013-11-24 09:49:00,21.6,2.0,29.44,SW,225,6.0,6.0,42,0.00,CLR,,0.00,WeatherDisplay:10.37,2013-11-24 15:49:00,
2013-11-24 09:53:00,21.4,1.3,29.44,SW,225,5.8,5.8,41,0.00,CLR,,0.00,WeatherDisplay:10.37,2013-11-24 15:53:00,
2013-11-24 09:54:00,21.4,0.8,29.44,SSW,202,9.2,9.2,40,0.00,CLR,,0.00,WeatherDisplay:10.37,2013-11-24 15:54:00,
2013-11-24 09:58:00,21.9,2.3,29.41,West,270,4.6,4.6,42,0.00,CLR,,0.00,WeatherDisplay:10.37,2013-11-24 15:58:00,
2013-11-24 10:00:00,22.5,2.8,29.41,SW,225,3.5,3.5,42,0.00,CLR,,0.00,WeatherDisplay:10.37,2013-11-24 16:00:00,
2013-11-24 10:03:00,21.9,1.2,29.41,SSW,202,4.6,4.6,40,0.00,CLR,,0.00,WeatherDisplay:10.37,2013-11-24 16:03:00,
2013-11-24 10:05:00,22.3,1.6,29.41,West,270,4.6,4.6,40,0.00,CLR,,0.00,WeatherDisplay:10.37,2013-11-24 16:05:00,
2013-11-24 10:08:00,22.1,1.4,29.41,South,180,4.6,4.6,40,0.00,CLR,,0.00,WeatherDisplay:10.37,2013-11-24 16:08:00,
2013-11-24 10:09:00,22.1,1.4,29.41,West,270,7.6,7.6,40,0.00,CLR,,0.00,WeatherDisplay:10.37,2013-11-24 16:09:00,
2013-11-24 10:10:00,22.3,1.6,29.38,WSW,248,8.1,8.1,40,0.00,CLR,,0.00,WeatherDisplay:10.37,2013-11-24 16:10:00,
2013-11-24 10:13:00,22.6,1.9,29.38,South,180,3.5,3.5,40,0.00,CLR,,0.00,WeatherDisplay:10.37,2013-11-24 16:13:00,
2013-11-24 10:14:00,22.6,1.9,29.38,South,180,3.5,3.5,40,0.00,CLR,,0.00,WeatherDisplay:10.37,2013-11-24 16:14:00,
2013-11-24 10:15:00,22.6,1.9,29.38,South,180,4.6,4.6,40,0.00,CLR,,0.00,WeatherDisplay:10.37,2013-11-24 16:15:00,
2013-11-24 10:18:00,23.4,2.0,29.38,West,270,4.6,4.6,39,0.00,CLR,,0.00,WeatherDisplay:10.37,2013-11-24 16:18:00,
2013-11-24 10:19:00,23.4,2.6,29.38,SW,225,4.6,4.6,40,0.00,CLR,,0.00,WeatherDisplay:10.37,2013-11-24 16:19:00,
2013-11-24 10:20:00,23.4,2.0,29.38,South,180,5.9,5.9,39,0.00,CLR,,0.00,WeatherDisplay:10.37,2013-11-24 16:20:00,
2013-11-24 10:21:00,23.2,1.8,29.38,South,180,5.8,5.8,39,0.00,CLR,,0.00,WeatherDisplay:10.37,2013-11-24 16:21:00,
2013-11-24 10:24:00,22.8,1.0,29.38,North,0,5.8,5.8,38,0.00,CLR,,0.00,WeatherDisplay:10.37,2013-11-24 16:24:00,
2013-11-24 10:25:00,22.8,1.0,29.35,SSW,202,3.8,3.8,38,0.00,CLR,,0.00,WeatherDisplay:10.37,2013-11-24 16:25:00,
2013-11-24 10:26:00,23.0,1.1,29.35,WSW,248,3.5,3.6,38,0.00,CLR,,0.00,WeatherDisplay:10.37,2013-11-24 16:26:00,
2013-11-24 10:29:00,22.8,1.0,29.35,SW,225,9.2,9.2,38,0.00,CLR,,0.00,WeatherDisplay:10.37,2013-11-24 16:29:00,
2013-11-24 10:30:00,23.5,2.2,29.35,NNE,22,4.7,4.7,39,0.00,CLR,,0.00,WeatherDisplay:10.37,2013-11-24 16:30:00,
2013-11-24 10:31:00,23.5,1.6,29.35,WSW,248,4.6,4.6,38,0.00,CLR,,0.00,WeatherDisplay:10.37,2013-11-24 16:31:00,
2013-11-24 10:34:00,23.5,1.6,29.35,WSW,248,8.1,8.1,38,0.00,CLR,,0.00,WeatherDisplay:10.37,2013-11-24 16:34:00,
2013-11-24 10:35:00,23.4,1.4,29.35,South,180,6.9,6.9,38,0.00,CLR,,0.00,WeatherDisplay:10.37,2013-11-24 16:35:00,
2013-11-24 10:37:00,23.5,1.6,29.35,South,180,3.5,3.5,38,0.00,CLR,,0.00,WeatherDisplay:10.37,2013-11-24 16:37:00,
2013-11-24 10:39:00,23.5,1.6,29.35,West,270,6.9,6.9,38,0.00,CLR,,0.00,WeatherDisplay:10.37,2013-11-24 16:39:00,
2013-11-24 10:40:00,23.4,1.4,29.38,SSW,202,7.8,7.8,38,0.00,CLR,,0.00,WeatherDisplay:10.37,2013-11-24 16:40:00,
2013-11-24 10:42:00,23.5,1.0,29.38,WSW,248,4.6,4.6,37,0.00,CLR,,0.00,WeatherDisplay:10.37,2013-11-24 16:42:00,
2013-11-24 10:44:00,23.4,0.3,29.38,SSW,202,8.1,8.1,36,0.00,CLR,,0.00,WeatherDisplay:10.37,2013-11-24 16:44:00,
2013-11-24 10:45:00,23.2,0.1,29.38,SSW,202,8.1,8.1,36,0.00,CLR,,0.00,WeatherDisplay:10.37,2013-11-24 16:45:00,
2013-11-24 10:47:00,23.5,1.0,29.38,NNW,338,4.9,4.9,37,0.00,CLR,,0.00,WeatherDisplay:10.37,2013-11-24 16:47:00,
2013-11-24 10:49:00,23.5,1.0,29.38,SW,225,3.8,3.8,37,0.00,CLR,,0.00,WeatherDisplay:10.37,2013-11-24 16:49:00,
2013-11-24 10:50:00,23.7,1.2,29.38,SSW,202,5.8,5.8,37,0.00,CLR,,0.00,WeatherDisplay:10.37,2013-11-24 16:50:00,
2013-11-24 10:51:00,23.5,1.0,29.38,SW,225,11.5,11.5,37,0.00,CLR,,0.00,WeatherDisplay:10.37,2013-11-24 16:51:00,
2013-11-24 10:52:00,23.5,1.0,29.38,SSW,202,5.8,5.8,37,0.00,CLR,,0.00,WeatherDisplay:10.37,2013-11-24 16:52:00,
2013-11-24 10:54:00,23.7,1.2,29.35,SSE,158,6.9,6.9,37,0.00,CLR,,0.00,WeatherDisplay:10.37,2013-11-24 16:54:00,
2013-11-24 10:55:00,23.7,1.2,29.35,SSW,202,6.0,6.0,37,0.00,CLR,,0.00,WeatherDisplay:10.37,2013-11-24 16:55:00,
2013-11-24 10:56:00,23.7,1.2,29.35,SSW,202,6.0,6.0,37,0.00,CLR,,0.00,WeatherDisplay:10.37,2013-11-24 16:56:00,
2013-11-24 10:57:00,23.5,0.5,29.35,South,180,10.4,10.4,36,0.00,CLR,,0.00,WeatherDisplay:10.37,2013-11-24 16:57:00,
2013-11-24 11:00:00,23.5,0.5,29.35,South,180,3.5,4.0,36,0.00,CLR,,0.00,WeatherDisplay:10.37,2013-11-24 17:00:00,
2013-11-24 11:01:00,23.5,0.5,29.35,SSW,202,5.8,5.8,36,0.00,CLR,,0.00,WeatherDisplay:10.37,2013-11-24 17:01:00,
2013-11-24 11:03:00,23.5,0.5,29.35,SSW,202,5.8,5.8,36,0.00,CLR,,0.00,WeatherDisplay:10.37,2013-11-24 17:03:00,
2013-11-24 11:05:00,23.7,0.6,29.35,ESE,112,6.9,6.9,36,0.00,CLR,,0.00,WeatherDisplay:10.37,2013-11-24 17:05:00,
2013-11-24 11:06:00,24.1,1.5,29.35,SSE,158,4.6,4.6,37,0.00,CLR,,0.00,WeatherDisplay:10.37,2013-11-24 17:06:00,
2013-11-24 11:07:00,24.3,1.7,29.35,WSW,248,3.5,3.5,37,0.00,CLR,,0.00,WeatherDisplay:10.37,2013-11-24 17:07:00,
2013-11-24 11:08:00,24.1,0.9,29.35,SSW,202,3.6,3.6,36,0.00,CLR,,0.00,WeatherDisplay:10.37,2013-11-24 17:08:00,
2013-11-24 11:10:00,24.1,0.9,29.35,WSW,248,5.8,5.8,36,0.00,CLR,,0.00,WeatherDisplay:10.37,2013-11-24 17:10:00,
2013-11-24 11:11:00,24.3,1.1,29.35,SSW,202,7.6,7.6,36,0.00,CLR,,0.00,WeatherDisplay:10.37,2013-11-24 17:11:00,
2013-11-24 11:12:00,24.1,0.3,29.35,SSW,202,8.1,8.1,35,0.00,CLR,,0.00,WeatherDisplay:10.37,2013-11-24 17:12:00,
2013-11-24 11:13:00,23.5,-0.2,29.35,SSW,202,9.2,9.2,35,0.00,CLR,,0.00,WeatherDisplay:10.37,2013-11-24 17:13:00,
2013-11-24 11:15:00,24.1,0.3,29.35,WSW,248,6.9,6.9,35,0.00,CLR,,0.00,WeatherDisplay:10.37,2013-11-24 17:15:00,
2013-11-24 11:16:00,24.1,0.3,29.35,ENE,68,4.6,4.6,35,0.00,CLR,,0.00,WeatherDisplay:10.37,2013-11-24 17:16:00,
2013-11-24 11:17:00,24.3,1.1,29.35,SSW,202,4.6,4.6,36,0.00,CLR,,0.00,WeatherDisplay:10.37,2013-11-24 17:17:00,
2013-11-24 11:18:00,24.3,0.5,29.35,SSW,202,3.5,3.5,35,0.00,CLR,,0.00,WeatherDisplay:10.37,2013-11-24 17:18:00,
2013-11-24 11:20:00,24.3,0.5,29.35,WSW,248,5.9,5.9,35,0.00,CLR,,0.00,WeatherDisplay:10.37,2013-11-24 17:20:00,
2013-11-24 11:21:00,24.3,0.5,29.35,SW,225,5.8,5.8,35,0.00,CLR,,0.00,WeatherDisplay:10.37,2013-11-24 17:21:00,
2013-11-24 11:22:00,24.1,0.3,29.35,SSW,202,5.8,5.8,35,0.00,CLR,,0.00,WeatherDisplay:10.37,2013-11-24 17:22:00,
2013-11-24 11:24:00,23.7,0.0,29.35,SSW,202,8.1,8.1,35,0.00,CLR,,0.00,WeatherDisplay:10.37,2013-11-24 17:24:00,
2013-11-24 11:25:00,23.7,0.0,29.32,SW,225,5.8,5.8,35,0.00,CLR,,0.00,WeatherDisplay:10.37,2013-11-24 17:25:00,
2013-11-24 11:26:00,23.7,0.0,29.32,SW,225,9.2,9.2,35,0.00,CLR,,0.00,WeatherDisplay:10.37,2013-11-24 17:26:00,
2013-11-24 11:27:00,23.7,0.0,29.32,SSW,202,5.9,5.9,35,0.00,CLR,,0.00,WeatherDisplay:10.37,2013-11-24 17:27:00,
2013-11-24 11:29:00,23.4,-0.3,29.32,SSW,202,9.2,9.2,35,0.00,CLR,,0.00,WeatherDisplay:10.37,2013-11-24 17:29:00,
2013-11-24 11:31:00,23.5,-0.2,29.32,NW,315,6.9,6.9,35,0.00,CLR,,0.00,WeatherDisplay:10.37,2013-11-24 17:31:00,
2013-11-24 11:32:00,23.7,0.0,29.32,SSW,202,4.6,4.6,35,0.00,CLR,,0.00,WeatherDisplay:10.37,2013-11-24 17:32:00,
2013-11-24 11:33:00,23.9,0.2,29.32,SSW,202,5.8,5.8,35,0.00,CLR,,0.00,WeatherDisplay:10.37,2013-11-24 17:33:00,
2013-11-24 11:34:00,23.5,-0.8,29.32,WSW,248,6.9,6.9,34,0.00,CLR,,0.00,WeatherDisplay:10.37,2013-11-24 17:34:00,
2013-11-24 11:36:00,23.7,0.0,29.32,WSW,248,5.8,5.8,35,0.00,CLR,,0.00,WeatherDisplay:10.37,2013-11-24 17:36:00,
2013-11-24 11:37:00,23.9,0.2,29.32,SW,225,6.0,6.0,35,0.00,CLR,,0.00,WeatherDisplay:10.37,2013-11-24 17:37:00,
2013-11-24 11:38:00,23.9,0.2,29.32,SSE,158,5.8,5.8,35,0.00,CLR,,0.00,WeatherDisplay:10.37,2013-11-24 17:38:00,
2013-11-24 11:39:00,23.9,0.2,29.32,SW,225,6.9,6.9,35,0.00,CLR,,0.00,WeatherDisplay:10.37,2013-11-24 17:39:00,
2013-11-24 11:40:00,24.1,0.3,29.29,SSW,202,6.9,6.9,35,0.00,CLR,,0.00,WeatherDisplay:10.37,2013-11-24 17:40:00,
2013-11-24 11:41:00,24.3,0.5,29.29,SSW,202,5.8,5.8,35,0.00,CLR,,0.00,WeatherDisplay:10.37,2013-11-24 17:41:00,
2013-11-24 11:42:00,24.3,0.5,29.29,SSE,158,5.8,5.8,35,0.00,CLR,,0.00,WeatherDisplay:10.37,2013-11-24 17:42:00,
2013-11-24 11:43:00,24.3,0.5,29.29,SE,135,4.6,4.6,35,0.00,CLR,,0.00,WeatherDisplay:10.37,2013-11-24 17:43:00,
2013-11-24 11:44:00,24.4,0.7,29.29,SSW,202,4.6,4.6,35,0.00,CLR,,0.00,WeatherDisplay:10.37,2013-11-24 17:44:00,
2013-11-24 11:45:00,24.6,0.8,29.29,SE,135,7.1,7.1,35,0.00,CLR,,0.00,WeatherDisplay:10.37,2013-11-24 17:45:00,
2013-11-24 11:46:00,24.4,0.0,29.29,WSW,248,6.9,6.9,34,0.00,CLR,,0.00,WeatherDisplay:10.37,2013-11-24 17:46:00,
2013-11-24 11:47:00,24.4,0.0,29.29,SSW,202,5.8,5.8,34,0.00,CLR,,0.00,WeatherDisplay:10.37,2013-11-24 17:47:00,
2013-11-24 11:48:00,24.4,0.0,29.29,SSW,202,4.6,4.6,34,0.00,CLR,,0.00,WeatherDisplay:10.37,2013-11-24 17:48:00,
2013-11-24 11:50:00,24.1,-0.3,29.29,SW,225,6.9,6.9,34,0.00,CLR,,0.00,WeatherDisplay:10.37,2013-11-24 17:50:00,
2013-11-24 11:51:00,23.9,-0.4,29.29,West,270,6.9,6.9,34,0.00,CLR,,0.00,WeatherDisplay:10.37,2013-11-24 17:51:00,
2013-11-24 11:52:00,24.1,-0.3,29.29,WSW,248,6.9,6.9,34,0.00,CLR,,0.00,WeatherDisplay:10.37,2013-11-24 17:52:00,
2013-11-24 11:53:00,23.9,-0.4,29.29,ESE,112,9.2,9.2,34,0.00,CLR,,0.00,WeatherDisplay:10.37,2013-11-24 17:53:00,
2013-11-24 11:55:00,24.3,-0.1,29.32,South,180,6.9,6.9,34,0.00,CLR,,0.00,WeatherDisplay:10.37,2013-11-24 17:55:00,
2013-11-24 11:56:00,23.9,-0.4,29.32,SSW,202,8.1,8.1,34,0.00,CLR,,0.00,WeatherDisplay:10.37,2013-11-24 17:56:00,
2013-11-24 11:57:00,24.3,-0.1,29.32,WSW,248,8.1,8.1,34,0.00,CLR,,0.00,WeatherDisplay:10.37,2013-11-24 17:57:00,
2013-11-24 11:58:00,24.3,-0.1,29.32,West,270,6.9,6.9,34,0.00,CLR,,0.00,WeatherDisplay:10.37,2013-11-24 17:58:00,
2013-11-24 11:59:00,24.4,0.0,29.32,WSW,248,6.9,6.9,34,0.00,CLR,,0.00,WeatherDisplay:10.37,2013-11-24 17:59:00,
2013-11-24 12:00:00,24.4,0.0,29.32,SSW,202,5.8,5.8,34,0.00,CLR,,0.00,WeatherDisplay:10.37,2013-11-24 18:00:00,
2013-11-24 12:01:00,24.8,0.4,29.32,SSW,202,5.8,5.8,34,0.00,CLR,,0.00,WeatherDisplay:10.37,2013-11-24 18:01:00,
2013-11-24 12:02:00,24.8,0.4,29.32,South,180,4.6,4.6,34,0.00,CLR,,0.00,WeatherDisplay:10.37,2013-11-24 18:02:00,
2013-11-24 12:03:00,25.0,0.5,29.32,SW,225,4.6,4.6,34,0.00,CLR,,0.00,WeatherDisplay:10.37,2013-11-24 18:03:00,
2013-11-24 12:04:00,25.0,0.5,29.32,SSW,207,3.0,6.0,34,0.00,CLR,,0.00,WeatherDisplay:10.37,2013-11-24 18:04:00,
2013-11-24 12:05:00,24.8,0.4,29.32,NNW,338,5.8,5.8,34,0.00,CLR,,0.00,WeatherDisplay:10.37,2013-11-24 18:05:00,
2013-11-24 12:06:00,24.8,0.4,29.32,WSW,248,5.8,5.8,34,0.00,CLR,,0.00,WeatherDisplay:10.37,2013-11-24 18:06:00,
2013-11-24 12:07:00,24.8,0.4,29.32,WNW,292,5.8,5.8,34,0.00,CLR,,0.00,WeatherDisplay:10.37,2013-11-24 18:07:00,
2013-11-24 12:08:00,24.8,0.4,29.32,SSW,202,5.9,5.9,34,0.00,CLR,,0.00,WeatherDisplay:10.37,2013-11-24 18:08:00,
2013-11-24 12:10:00,25.0,0.5,29.29,SSE,158,6.9,6.9,34,0.00,CLR,,0.00,WeatherDisplay:10.37,2013-11-24 18:10:00,
2013-11-24 12:11:00,25.2,0.7,29.29,SSE,158,8.1,8.1,34,0.00,CLR,,0.00,WeatherDisplay:10.37,2013-11-24 18:11:00,
2013-11-24 12:12:00,25.2,0.0,29.29,SSW,202,5.8,5.8,33,0.00,CLR,,0.00,WeatherDisplay:10.37,2013-11-24 18:12:00,
2013-11-24 12:13:00,25.2,0.0,29.29,SSW,202,5.8,5.8,33,0.00,CLR,,0.00,WeatherDisplay:10.37,2013-11-24 18:13:00,
2013-11-24 12:15:00,25.2,0.0,29.29,South,180,5.8,5.8,33,0.00,CLR,,0.00,WeatherDisplay:10.37,2013-11-24 18:15:00,
2013-11-24 12:16:00,25.0,-0.1,29.29,NNE,22,6.2,6.2,33,0.00,CLR,,0.00,WeatherDisplay:10.37,2013-11-24 18:16:00,
2013-11-24 12:17:00,25.0,-0.1,29.29,SW,225,5.8,5.8,33,0.00,CLR,,0.00,WeatherDisplay:10.37,2013-11-24 18:17:00,
2013-11-24 12:18:00,25.3,0.2,29.29,WSW,248,5.8,5.8,33,0.00,CLR,,0.00,WeatherDisplay:10.37,2013-11-24 18:18:00,
2013-11-24 12:20:00,25.3,0.2,29.29,WSW,248,5.8,5.8,33,0.00,CLR,,0.00,WeatherDisplay:10.37,2013-11-24 18:20:00,
2013-11-24 12:22:00,25.0,-0.1,29.29,SSW,202,8.1,8.1,33,0.00,CLR,,0.00,WeatherDisplay:10.37,2013-11-24 18:22:00,
2013-11-24 12:23:00,25.2,0.0,29.29,SSW,202,8.1,8.1,33,0.00,CLR,,0.00,WeatherDisplay:10.37,2013-11-24 18:23:00,
2013-11-24 12:24:00,25.3,0.2,29.29,WSW,248,5.8,5.8,33,0.00,CLR,,0.00,WeatherDisplay:10.37,2013-11-24 18:24:00,
2013-11-24 12:25:00,25.5,0.4,29.26,SW,225,5.8,5.8,33,0.00,CLR,,0.00,WeatherDisplay:10.37,2013-11-24 18:25:00,
2013-11-24 12:27:00,25.9,0.7,29.26,SSW,202,4.6,4.6,33,0.00,CLR,,0.00,WeatherDisplay:10.37,2013-11-24 18:27:00,
2013-11-24 12:28:00,25.9,0.7,29.26,SSW,202,5.8,5.8,33,0.00,CLR,,0.00,WeatherDisplay:10.37,2013-11-24 18:28:00,
2013-11-24 12:29:00,25.9,0.7,29.26,South,180,5.8,5.8,33,0.00,CLR,,0.00,WeatherDisplay:10.37,2013-11-24 18:29:00,
2013-11-24 12:30:00,25.7,0.5,29.26,West,270,5.4,5.4,33,0.00,CLR,,0.00,WeatherDisplay:10.37,2013-11-24 18:30:00,
2013-11-24 12:32:00,26.1,0.8,29.26,SE,135,4.6,4.6,33,0.00,CLR,,0.00,WeatherDisplay:10.37,2013-11-24 18:32:00,
2013-11-24 12:33:00,26.2,1.0,29.26,NW,315,6.9,6.9,33,0.00,CLR,,0.00,WeatherDisplay:10.37,2013-11-24 18:33:00,
2013-11-24 12:34:00,26.2,1.0,29.26,South,180,7.4,7.4,33,0.00,CLR,,0.00,WeatherDisplay:10.37,2013-11-24 18:34:00,
2013-11-24 12:36:00,26.1,0.8,29.26,NNW,338,5.8,5.8,33,0.00,CLR,,0.00,WeatherDisplay:10.37,2013-11-24 18:36:00,
2013-11-24 12:38:00,25.9,0.7,29.26,SSW,202,6.9,6.9,33,0.00,CLR,,0.00,WeatherDisplay:10.37,2013-11-24 18:38:00,
2013-11-24 12:39:00,25.9,0.7,29.26,WSW,248,8.1,8.1,33,0.00,CLR,,0.00,WeatherDisplay:10.37,2013-11-24 18:39:00,
2013-11-24 12:40:00,25.9,0.7,29.26,SE,135,8.1,8.1,33,0.00,CLR,,0.00,WeatherDisplay:10.37,2013-11-24 18:40:00,
2013-11-24 12:41:00,25.7,0.5,29.26,SSW,202,4.9,4.9,33,0.00,CLR,,0.00,WeatherDisplay:10.37,2013-11-24 18:41:00,
2013-11-24 12:42:00,25.7,0.5,29.26,SW,225,12.7,12.7,33,0.00,CLR,,0.00,WeatherDisplay:10.37,2013-11-24 18:42:00,
2013-11-24 12:43:00,25.5,-0.3,29.26,SW,225,10.4,10.4,32,0.00,CLR,,0.00,WeatherDisplay:10.37,2013-11-24 18:43:00,
2013-11-24 12:44:00,25.2,0.0,29.26,SSW,202,10.4,10.4,33,0.00,CLR,,0.00,WeatherDisplay:10.37,2013-11-24 18:44:00,
2013-11-24 12:45:00,25.3,0.2,29.26,WSW,248,5.8,5.8,33,0.00,CLR,,0.00,WeatherDisplay:10.37,2013-11-24 18:45:00,
2013-11-24 12:47:00,25.5,0.4,29.26,South,180,5.8,5.8,33,0.00,CLR,,0.00,WeatherDisplay:10.37,2013-11-24 18:47:00,
2013-11-24 12:48:00,25.5,-0.3,29.26,WSW,248,8.1,8.1,32,0.00,CLR,,0.00,WeatherDisplay:10.37,2013-11-24 18:48:00,
2013-11-24 12:49:00,25.5,0.4,29.26,SSW,202,6.9,6.9,33,0.00,CLR,,0.00,WeatherDisplay:10.37,2013-11-24 18:49:00,
2013-11-24 12:50:00,25.5,0.4,29.26,SW,225,5.8,5.8,33,0.00,CLR,,0.00,WeatherDisplay:10.37,2013-11-24 18:50:00,
2013-11-24 12:52:00,26.1,0.8,29.26,WNW,292,6.9,6.9,33,0.00,CLR,,0.00,WeatherDisplay:10.37,2013-11-24 18:52:00,
2013-11-24 12:53:00,26.1,0.8,29.26,SW,225,5.8,5.8,33,0.00,CLR,,0.00,WeatherDisplay:10.37,2013-11-24 18:53:00,
2013-11-24 12:54:00,26.2,1.0,29.26,SSW,202,5.6,5.6,33,0.00,CLR,,0.00,WeatherDisplay:10.37,2013-11-24 18:54:00,
2013-11-24 12:55:00,26.2,1.0,29.26,SSW,202,5.8,5.8,33,0.00,CLR,,0.00,WeatherDisplay:10.37,2013-11-24 18:55:00,
2013-11-24 12:57:00,26.2,1.0,29.26,North,0,9.2,9.2,33,0.00,CLR,,0.00,WeatherDisplay:10.37,2013-11-24 18:57:00,
2013-11-24 12:58:00,26.1,0.8,29.26,SSW,202,8.1,8.1,33,0.00,CLR,,0.00,WeatherDisplay:10.37,2013-11-24 18:58:00,
2013-11-24 12:59:00,26.2,1.0,29.26,SSW,202,4.6,4.6,33,0.00,CLR,,0.00,WeatherDisplay:10.37,2013-11-24 18:59:00,
2013-11-24 13:00:00,26.1,0.8,29.26,SSW,202,6.9,6.9,33,0.00,CLR,,0.00,WeatherDisplay:10.37,2013-11-24 19:00:00,
2013-11-24 13:02:00,26.1,0.8,29.26,SSE,158,4.3,4.3,33,0.00,CLR,,0.00,WeatherDisplay:10.37,2013-11-24 19:02:00,
2013-11-24 13:03:00,26.1,0.8,29.26,SSW,202,5.9,5.9,33,0.00,CLR,,0.00,WeatherDisplay:10.37,2013-11-24 19:03:00,
2013-11-24 13:04:00,26.1,0.8,29.26,SW,225,5.8,5.8,33,0.00,CLR,,0.00,WeatherDisplay:10.37,2013-11-24 19:04:00,
2013-11-24 13:05:00,26.1,0.8,29.26,WSW,248,6.4,6.4,33,0.00,CLR,,0.00,WeatherDisplay:10.37,2013-11-24 19:05:00,
2013-11-24 13:08:00,26.4,1.2,29.26,WSW,248,8.1,8.1,33,0.00,CLR,,0.00,WeatherDisplay:10.37,2013-11-24 19:08:00,
2013-11-24 13:09:00,26.2,1.0,29.26,SSW,202,8.1,8.1,33,0.00,CLR,,0.00,WeatherDisplay:10.37,2013-11-24 19:09:00,
2013-11-24 13:10:00,26.2,1.0,29.26,SSW,202,8.1,8.1,33,0.00,CLR,,0.00,WeatherDisplay:10.37,2013-11-24 19:10:00,
2013-11-24 13:14:00,26.2,1.0,29.26,WSW,248,5.8,5.8,33,0.00,CLR,,0.00,WeatherDisplay:10.37,2013-11-24 19:14:00,
2013-11-24 13:15:00,26.4,1.2,29.26,South,180,4.6,4.6,33,0.00,CLR,,0.00,WeatherDisplay:10.37,2013-11-24 19:15:00,
2013-11-24 13:16:00,26.4,1.2,29.26,SSW,202,9.2,9.2,33,0.00,CLR,,0.00,WeatherDisplay:10.37,2013-11-24 19:16:00,
2013-11-24 13:19:00,27.0,1.6,29.26,WSW,248,3.8,3.8,33,0.00,CLR,,0.00,WeatherDisplay:10.37,2013-11-24 19:19:00,
2013-11-24 13:20:00,27.0,1.6,29.26,WSW,248,6.9,6.9,33,0.00,CLR,,0.00,WeatherDisplay:10.37,2013-11-24 19:20:00,
2013-11-24 13:21:00,26.1,0.8,29.26,SSE,158,6.9,6.9,33,0.00,CLR,,0.00,WeatherDisplay:10.37,2013-11-24 19:21:00,
2013-11-24 13:24:00,25.3,0.2,29.26,ENE,68,8.1,8.1,33,0.00,CLR,,0.00,WeatherDisplay:10.37,2013-11-24 19:24:00,
2013-11-24 13:25:00,25.3,0.2,29.24,SW,225,5.8,5.8,33,0.00,CLR,,0.00,WeatherDisplay:10.37,2013-11-24 19:25:00,
2013-11-24 13:26:00,25.5,0.4,29.24,SSW,202,8.1,8.1,33,0.00,CLR,,0.00,WeatherDisplay:10.37,2013-11-24 19:26:00,
2013-11-24 13:29:00,25.3,0.2,29.24,SW,225,6.9,6.9,33,0.00,CLR,,0.00,WeatherDisplay:10.37,2013-11-24 19:29:00,
2013-11-24 13:30:00,25.3,0.2,29.24,WNW,292,8.1,8.1,33,0.00,CLR,,0.00,WeatherDisplay:10.37,2013-11-24 19:30:00,
2013-11-24 13:31:00,25.3,0.2,29.24,SSW,202,8.1,8.1,33,0.00,CLR,,0.00,WeatherDisplay:10.37,2013-11-24 19:31:00,
2013-11-24 13:32:00,25.3,0.2,29.24,West,270,8.1,8.1,33,0.00,CLR,,0.00,WeatherDisplay:10.37,2013-11-24 19:32:00,
2013-11-24 13:34:00,25.3,0.2,29.24,WSW,248,11.5,11.5,33,0.00,CLR,,0.00,WeatherDisplay:10.37,2013-11-24 19:34:00,
2013-11-24 13:35:00,25.3,0.2,29.24,SW,225,6.9,6.9,33,0.00,CLR,,0.00,WeatherDisplay:10.37,2013-11-24 19:35:00,
2013-11-24 13:36:00,25.3,0.2,29.24,South,180,5.9,5.9,33,0.00,CLR,,0.00,WeatherDisplay:10.37,2013-11-24 19:36:00,
2013-11-24 13:37:00,25.2,-0.6,29.24,SSW,202,5.8,6.0,32,0.00,CLR,,0.00,WeatherDisplay:10.37,2013-11-24 19:37:00,
2013-11-24 13:39:00,25.2,0.0,29.24,SSW,202,5.0,7.0,33,0.00,CLR,,0.00,WeatherDisplay:10.37,2013-11-24 19:39:00,
2013-11-24 13:40:00,25.2,0.0,29.24,NNE,22,5.8,5.8,33,0.00,CLR,,0.00,WeatherDisplay:10.37,2013-11-24 19:40:00,
2013-11-24 13:41:00,25.2,0.0,29.24,SSW,202,6.0,6.0,33,0.00,CLR,,0.00,WeatherDisplay:10.37,2013-11-24 19:41:00,
2013-11-24 13:42:00,25.2,0.0,29.24,South,180,8.1,8.1,33,0.00,CLR,,0.00,WeatherDisplay:10.37,2013-11-24 19:42:00,
2013-11-24 13:44:00,25.3,0.2,29.24,West,270,8.7,8.7,33,0.00,CLR,,0.00,WeatherDisplay:10.37,2013-11-24 19:44:00,
2013-11-24 13:45:00,25.3,0.2,29.24,SW,225,9.2,9.2,33,0.00,CLR,,0.00,WeatherDisplay:10.37,2013-11-24 19:45:00,
2013-11-24 13:46:00,25.3,0.2,29.24,SSW,202,6.9,6.9,33,0.00,CLR,,0.00,WeatherDisplay:10.37,2013-11-24 19:46:00,
2013-11-24 13:47:00,25.3,0.2,29.24,South,180,6.9,6.9,33,0.00,CLR,,0.00,WeatherDisplay:10.37,2013-11-24 19:47:00,
2013-11-24 13:50:00,25.3,-0.5,29.24,WSW,248,4.6,4.6,32,0.00,CLR,,0.00,WeatherDisplay:10.37,2013-11-24 19:50:00,
2013-11-24 13:51:00,25.3,-0.5,29.24,South,180,5.8,5.8,32,0.00,CLR,,0.00,WeatherDisplay:10.37,2013-11-24 19:51:00,
2013-11-24 13:52:00,25.3,-0.5,29.24,SW,225,8.1,8.1,32,0.00,CLR,,0.00,WeatherDisplay:10.37,2013-11-24 19:52:00,
2013-11-24 13:55:00,25.5,-0.3,29.20,SW,225,9.2,9.2,32,0.00,CLR,,0.00,WeatherDisplay:10.37,2013-11-24 19:55:00,
2013-11-24 13:56:00,25.5,-0.3,29.20,SSE,158,9.2,9.2,32,0.00,CLR,,0.00,WeatherDisplay:10.37,2013-11-24 19:56:00,
2013-11-24 13:57:00,25.7,-0.1,29.20,SSW,202,9.2,9.2,32,0.00,CLR,,0.00,WeatherDisplay:10.37,2013-11-24 19:57:00,
2013-11-24 13:58:00,25.7,-0.1,29.20,North,0,5.8,5.8,32,0.00,CLR,,0.00,WeatherDisplay:10.37,2013-11-24 19:58:00,
2013-11-24 14:00:00,25.5,-0.3,29.20,South,180,8.1,8.1,32,0.00,CLR,,0.00,WeatherDisplay:10.37,2013-11-24 20:00:00,
2013-11-24 14:01:00,25.5,-0.3,29.20,SSW,202,4.6,4.6,32,0.00,CLR,,0.00,WeatherDisplay:10.37,2013-11-24 20:01:00,
2013-11-24 14:02:00,25.7,-0.1,29.20,West,270,5.8,5.8,32,0.00,CLR,,0.00,WeatherDisplay:10.37,2013-11-24 20:02:00,
2013-11-24 14:03:00,25.7,-0.1,29.20,West,270,6.9,6.9,32,0.00,CLR,,0.00,WeatherDisplay:10.37,2013-11-24 20:03:00,
2013-11-24 14:06:00,25.9,0.0,29.20,SW,225,4.6,4.6,32,0.00,CLR,,0.00,WeatherDisplay:10.37,2013-11-24 20:06:00,
2013-11-24 14:07:00,26.1,0.2,29.20,South,180,5.8,5.8,32,0.00,CLR,,0.00,WeatherDisplay:10.37,2013-11-24 20:07:00,
2013-11-24 14:08:00,26.1,0.2,29.20,SSW,202,5.8,5.8,32,0.00,CLR,,0.00,WeatherDisplay:10.37,2013-11-24 20:08:00,
2013-11-24 14:11:00,26.1,0.2,29.20,WSW,248,6.9,6.9,32,0.00,CLR,,0.00,WeatherDisplay:10.37,2013-11-24 20:11:00,
2013-11-24 14:12:00,26.1,0.2,29.20,North,0,9.2,9.2,32,0.00,CLR,,0.00,WeatherDisplay:10.37,2013-11-24 20:12:00,
2013-11-24 14:13:00,26.1,0.2,29.20,South,180,8.1,8.1,32,0.00,CLR,,0.00,WeatherDisplay:10.37,2013-11-24 20:13:00,
2013-11-24 14:14:00,26.1,0.2,29.20,SSE,158,8.1,8.1,32,0.00,CLR,,0.00,WeatherDisplay:10.37,2013-11-24 20:14:00,
2013-11-24 14:16:00,26.1,0.2,29.20,West,270,6.9,6.9,32,0.00,CLR,,0.00,WeatherDisplay:10.37,2013-11-24 20:16:00,
2013-11-24 14:17:00,26.1,0.2,29.20,South,180,6.9,6.9,32,0.00,CLR,,0.00,WeatherDisplay:10.37,2013-11-24 20:17:00,
2013-11-24 14:18:00,26.1,0.2,29.20,SSW,202,10.4,10.4,32,0.00,CLR,,0.00,WeatherDisplay:10.37,2013-11-24 20:18:00,
2013-11-24 14:19:00,26.1,0.2,29.20,WSW,248,10.4,10.4,32,0.00,CLR,,0.00,WeatherDisplay:10.37,2013-11-24 20:19:00,
2013-11-24 14:21:00,26.2,0.3,29.20,SSW,202,6.9,6.9,32,0.00,CLR,,0.00,WeatherDisplay:10.37,2013-11-24 20:21:00,
2013-11-24 14:22:00,26.6,0.7,29.20,NNE,22,4.6,4.6,32,0.00,CLR,,0.00,WeatherDisplay:10.37,2013-11-24 20:22:00,
2013-11-24 14:23:00,26.6,0.7,29.20,South,180,4.6,4.6,32,0.00,CLR,,0.00,WeatherDisplay:10.37,2013-11-24 20:23:00,
2013-11-24 14:24:00,26.8,0.8,29.20,SSW,202,4.6,4.6,32,0.00,CLR,,0.00,WeatherDisplay:10.37,2013-11-24 20:24:00,
2013-11-24 14:26:00,26.6,0.7,29.20,West,270,9.2,9.2,32,0.00,CLR,,0.00,WeatherDisplay:10.37,2013-11-24 20:26:00,
2013-11-24 14:27:00,26.4,0.5,29.20,SSW,202,9.2,9.2,32,0.00,CLR,,0.00,WeatherDisplay:10.37,2013-11-24 20:27:00,
2013-11-24 14:28:00,26.4,0.5,29.20,SW,225,5.8,5.8,32,0.00,CLR,,0.00,WeatherDisplay:10.37,2013-11-24 20:28:00,
2013-11-24 14:29:00,26.6,0.7,29.20,South,180,5.8,5.8,32,0.00,CLR,,0.00,WeatherDisplay:10.37,2013-11-24 20:29:00,
2013-11-24 14:30:00,26.8,0.1,29.20,SW,225,4.6,4.6,31,0.00,CLR,,0.00,WeatherDisplay:10.37,2013-11-24 20:30:00,
2013-11-24 14:31:00,27.0,0.3,29.20,WSW,248,4.6,4.6,31,0.00,CLR,,0.00,WeatherDisplay:10.37,2013-11-24 20:31:00,
2013-11-24 14:33:00,27.0,0.3,29.20,SSW,202,6.9,6.9,31,0.00,CLR,,0.00,WeatherDisplay:10.37,2013-11-24 20:33:00,
2013-11-24 14:34:00,27.0,0.3,29.20,South,180,6.9,6.9,31,0.00,CLR,,0.00,WeatherDisplay:10.37,2013-11-24 20:34:00,
2013-11-24 14:35:00,26.8,0.1,29.20,West,270,4.6,4.6,31,0.00,CLR,,0.00,WeatherDisplay:10.37,2013-11-24 20:35:00,
2013-11-24 14:36:00,27.0,0.3,29.20,WNW,292,5.4,5.4,31,0.00,CLR,,0.00,WeatherDisplay:10.37,2013-11-24 20:36:00,
2013-11-24 14:38:00,27.0,0.3,29.20,SW,225,6.9,6.9,31,0.00,CLR,,0.00,WeatherDisplay:10.37,2013-11-24 20:38:00,
2013-11-24 14:39:00,27.0,0.3,29.20,SW,225,8.7,8.7,31,0.00,CLR,,0.00,WeatherDisplay:10.37,2013-11-24 20:39:00,
2013-11-24 14:40:00,27.0,0.3,29.20,NW,315,10.4,10.4,31,0.00,CLR,,0.00,WeatherDisplay:10.37,2013-11-24 20:40:00,
2013-11-24 14:41:00,27.0,0.3,29.20,West,270,10.4,10.4,31,0.00,CLR,,0.00,WeatherDisplay:10.37,2013-11-24 20:41:00,
2013-11-24 14:44:00,27.0,0.3,29.20,WSW,248,9.2,9.2,31,0.00,CLR,,0.00,WeatherDisplay:10.37,2013-11-24 20:44:00,
2013-11-24 14:45:00,27.0,0.3,29.20,SW,225,9.2,9.2,31,0.00,CLR,,0.00,WeatherDisplay:10.37,2013-11-24 20:45:00,
2013-11-24 14:46:00,27.0,0.3,29.20,SSW,202,5.8,5.8,31,0.00,CLR,,0.00,WeatherDisplay:10.37,2013-11-24 20:46:00,
2013-11-24 14:47:00,27.0,0.3,29.20,SSE,158,8.1,8.1,31,0.00,CLR,,0.00,WeatherDisplay:10.37,2013-11-24 20:47:00,
2013-11-24 14:49:00,26.8,0.1,29.20,SSW,202,6.9,6.9,31,0.00,CLR,,0.00,WeatherDisplay:10.37,2013-11-24 20:49:00,
2013-11-24 14:50:00,27.0,0.3,29.20,SSW,202,6.9,6.9,31,0.00,CLR,,0.00,WeatherDisplay:10.37,2013-11-24 20:50:00,
2013-11-24 14:51:00,26.8,0.1,29.20,WNW,292,9.2,9.2,31,0.00,CLR,,0.00,WeatherDisplay:10.37,2013-11-24 20:51:00,
2013-11-24 14:52:00,26.8,0.1,29.20,SSW,202,8.1,8.1,31,0.00,CLR,,0.00,WeatherDisplay:10.37,2013-11-24 20:52:00,
2013-11-24 14:54:00,26.8,0.1,29.20,SW,225,9.2,9.2,31,0.00,CLR,,0.00,WeatherDisplay:10.37,2013-11-24 20:54:00,
2013-11-24 14:55:00,27.0,0.3,29.18,SSE,158,9.2,9.2,31,0.00,CLR,,0.00,WeatherDisplay:10.37,2013-11-24 20:55:00,
2013-11-24 14:56:00,27.0,0.3,29.18,WSW,248,8.1,8.1,31,0.00,CLR,,0.00,WeatherDisplay:10.37,2013-11-24 20:56:00,
2013-11-24 14:57:00,27.0,0.3,29.18,SSW,202,8.1,8.1,31,0.00,CLR,,0.00,WeatherDisplay:10.37,2013-11-24 20:57:00,
2013-11-24 14:59:00,27.1,0.4,29.18,SSW,202,6.2,6.2,31,0.00,CLR,,0.00,WeatherDisplay:10.37,2013-11-24 20:59:00,
2013-11-24 15:00:00,27.1,0.4,29.18,WNW,292,6.9,6.9,31,0.00,CLR,,0.00,WeatherDisplay:10.37,2013-11-24 21:00:00,
2013-11-24 15:01:00,27.3,0.6,29.18,SSW,202,5.8,5.8,31,0.00,CLR,,0.00,WeatherDisplay:10.37,2013-11-24 21:01:00,
2013-11-24 15:02:00,27.3,0.6,29.18,SSW,202,5.8,5.8,31,0.00,CLR,,0.00,WeatherDisplay:10.37,2013-11-24 21:02:00,
2013-11-24 15:03:00,27.5,0.8,29.18,West,270,5.9,5.9,31,0.00,CLR,,0.00,WeatherDisplay:10.37,2013-11-24 21:03:00,
2013-11-24 15:05:00,27.3,0.6,29.18,SSW,202,8.1,8.1,31,0.00,CLR,,0.00,WeatherDisplay:10.37,2013-11-24 21:05:00,
2013-11-24 15:06:00,27.5,0.8,29.18,West,270,3.5,4.7,31,0.00,CLR,,0.00,WeatherDisplay:10.37,2013-11-24 21:06:00,
2013-11-24 15:07:00,27.5,0.8,29.18,SW,225,5.4,5.4,31,0.00,CLR,,0.00,WeatherDisplay:10.37,2013-11-24 21:07:00,
2013-11-24 15:08:00,27.5,0.8,29.18,SW,225,7.4,7.4,31,0.00,CLR,,0.00,WeatherDisplay:10.37,2013-11-24 21:08:00,
2013-11-24 15:10:00,27.3,0.6,29.20,WSW,248,8.1,8.1,31,0.00,CLR,,0.00,WeatherDisplay:10.37,2013-11-24 21:10:00,
2013-11-24 15:12:00,27.3,0.6,29.20,SW,225,8.1,8.1,31,0.00,CLR,,0.00,WeatherDisplay:10.37,2013-11-24 21:12:00,
2013-11-24 15:13:00,27.5,0.8,29.20,WSW,248,8.1,8.1,31,0.00,CLR,,0.00,WeatherDisplay:10.37,2013-11-24 21:13:00,
2013-11-24 15:15:00,27.3,0.6,29.20,SSW,202,9.2,9.2,31,0.00,CLR,,0.00,WeatherDisplay:10.37,2013-11-24 21:15:00,
2013-11-24 15:16:00,27.3,0.6,29.20,SSW,202,5.8,5.8,31,0.00,CLR,,0.00,WeatherDisplay:10.37,2013-11-24 21:16:00,
2013-11-24 15:17:00,27.3,0.6,29.20,SSW,202,8.1,8.1,31,0.00,CLR,,0.00,WeatherDisplay:10.37,2013-11-24 21:17:00,
2013-11-24 15:18:00,27.3,0.6,29.20,WSW,248,8.1,8.1,31,0.00,CLR,,0.00,WeatherDisplay:10.37,2013-11-24 21:18:00,
2013-11-24 15:19:00,27.3,0.6,29.20,WSW,248,8.1,8.1,31,0.00,CLR,,0.00,WeatherDisplay:10.37,2013-11-24 21:19:00,
2013-11-24 15:21:00,27.3,0.6,29.20,SW,225,5.8,5.8,31,0.00,CLR,,0.00,WeatherDisplay:10.37,2013-11-24 21:21:00,
2013-11-24 15:22:00,27.5,0.8,29.20,WSW,248,5.8,5.8,31,0.00,CLR,,0.00,WeatherDisplay:10.37,2013-11-24 21:22:00,
2013-11-24 15:23:00,27.7,0.9,29.20,South,180,6.9,6.9,31,0.00,CLR,,0.00,WeatherDisplay:10.37,2013-11-24 21:23:00,
2013-11-24 15:24:00,27.9,1.1,29.20,WNW,292,7.1,7.1,31,0.00,CLR,,0.00,WeatherDisplay:10.37,2013-11-24 21:24:00,
2013-11-24 15:26:00,27.5,0.8,29.18,West,270,5.9,5.9,31,0.00,CLR,,0.00,WeatherDisplay:10.37,2013-11-24 21:26:00,
2013-11-24 15:27:00,27.5,0.8,29.18,South,180,6.9,6.9,31,0.00,CLR,,0.00,WeatherDisplay:10.37,2013-11-24 21:27:00,
2013-11-24 15:28:00,27.5,0.8,29.18,SSW,202,6.9,6.9,31,0.00,CLR,,0.00,WeatherDisplay:10.37,2013-11-24 21:28:00,
2013-11-24 15:29:00,27.5,0.8,29.18,SSE,158,9.2,9.2,31,0.00,CLR,,0.00,WeatherDisplay:10.37,2013-11-24 21:29:00,
2013-11-24 15:31:00,27.7,0.9,29.18,SSW,202,4.6,4.6,31,0.00,CLR,,0.00,WeatherDisplay:10.37,2013-11-24 21:31:00,
2013-11-24 15:32:00,27.9,1.1,29.18,SSW,202,4.6,4.6,31,0.00,CLR,,0.00,WeatherDisplay:10.37,2013-11-24 21:32:00,
2013-11-24 15:33:00,27.7,0.9,29.18,SSW,202,6.9,6.9,31,0.00,CLR,,0.00,WeatherDisplay:10.37,2013-11-24 21:33:00,
2013-11-24 15:34:00,27.7,0.9,29.18,West,270,8.1,8.1,31,0.00,CLR,,0.00,WeatherDisplay:10.37,2013-11-24 21:34:00,
2013-11-24 15:37:00,27.5,0.8,29.18,SW,225,4.6,4.6,31,0.00,CLR,,0.00,WeatherDisplay:10.37,2013-11-24 21:37:00,
2013-11-24 15:38:00,27.7,0.9,29.18,NW,315,5.8,5.8,31,0.00,CLR,,0.00,WeatherDisplay:10.37,2013-11-24 21:38:00,
2013-11-24 15:39:00,27.5,0.8,29.15,South,180,6.0,6.0,31,0.00,CLR,,0.00,WeatherDisplay:10.37,2013-11-24 21:39:00,
2013-11-24 15:40:00,27.5,0.8,29.15,South,180,5.8,5.8,31,0.00,CLR,,0.00,WeatherDisplay:10.37,2013-11-24 21:40:00,
2013-11-24 15:42:00,27.7,0.9,29.15,WSW,248,3.5,3.5,31,0.00,CLR,,0.00,WeatherDisplay:10.37,2013-11-24 21:42:00,
2013-11-24 15:44:00,27.7,0.9,29.15,SSE,158,3.5,3.5,31,0.00,CLR,,0.00,WeatherDisplay:10.37,2013-11-24 21:44:00,
2013-11-24 15:45:00,27.5,0.8,29.15,SSW,202,5.8,5.8,31,0.00,CLR,,0.00,WeatherDisplay:10.37,2013-11-24 21:45:00,
2013-11-24 15:47:00,27.3,0.6,29.15,East,90,5.8,5.8,31,0.00,CLR,,0.00,WeatherDisplay:10.37,2013-11-24 21:47:00,
2013-11-24 15:49:00,27.1,0.4,29.15,South,180,6.2,6.2,31,0.00,CLR,,0.00,WeatherDisplay:10.37,2013-11-24 21:49:00,
2013-11-24 15:50:00,27.1,0.4,29.15,SSW,202,5.8,5.8,31,0.00,CLR,,0.00,WeatherDisplay:10.37,2013-11-24 21:50:00,
2013-11-24 15:52:00,27.0,0.3,29.15,SSW,202,5.8,5.8,31,0.00,CLR,,0.00,WeatherDisplay:10.37,2013-11-24 21:52:00,
2013-11-24 15:53:00,27.0,0.3,29.15,South,180,4.6,4.6,31,0.00,CLR,,0.00,WeatherDisplay:10.37,2013-11-24 21:53:00,
2013-11-24 15:54:00,27.0,0.3,29.15,SSW,202,4.6,4.6,31,0.00,CLR,,0.00,WeatherDisplay:10.37,2013-11-24 21:54:00,
2013-11-24 15:55:00,27.1,0.4,29.15,South,180,3.5,3.5,31,0.00,CLR,,0.00,WeatherDisplay:10.37,2013-11-24 21:55:00,
2013-11-24 15:56:00,27.0,0.3,29.15,SW,225,5.8,5.8,31,0.00,CLR,,0.00,WeatherDisplay:10.37,2013-11-24 21:56:00,
2013-11-24 15:58:00,26.6,0.7,29.15,WSW,248,8.1,8.1,32,0.00,CLR,,0.00,WeatherDisplay:10.37,2013-11-24 21:58:00,
2013-11-24 15:59:00,26.1,-0.5,29.15,SSW,202,5.8,5.8,31,0.00,CLR,,0.00,WeatherDisplay:10.37,2013-11-24 21:59:00,
2013-11-24 16:00:00,25.9,0.0,29.15,SSW,202,5.8,5.8,32,0.00,CLR,,0.00,WeatherDisplay:10.37,2013-11-24 22:00:00,
2013-11-24 16:01:00,25.9,0.0,29.15,SSW,202,4.6,4.6,32,0.00,CLR,,0.00,WeatherDisplay:10.37,2013-11-24 22:01:00,
2013-11-24 16:03:00,25.5,-1.0,29.15,SSW,202,5.9,5.9,31,0.00,CLR,,0.00,WeatherDisplay:10.37,2013-11-24 22:03:00,
2013-11-24 16:04:00,25.3,-1.1,29.15,SSW,202,5.8,5.8,31,0.00,CLR,,0.00,WeatherDisplay:10.37,2013-11-24 22:04:00,
2013-11-24 16:05:00,25.2,-1.3,29.15,South,180,6.7,6.7,31,0.00,CLR,,0.00,WeatherDisplay:10.37,2013-11-24 22:05:00,
2013-11-24 16:06:00,25.2,-1.3,29.15,SSW,202,6.9,6.9,31,0.00,CLR,,0.00,WeatherDisplay:10.37,2013-11-24 22:06:00,
2013-11-24 16:08:00,25.0,-1.5,29.15,SSW,202,8.1,8.1,31,0.00,CLR,,0.00,WeatherDisplay:10.37,2013-11-24 22:08:00,
2013-11-24 16:09:00,24.8,-0.9,29.12,West,270,4.6,4.6,32,0.00,CLR,,0.00,WeatherDisplay:10.37,2013-11-24 22:09:00,
2013-11-24 16:11:00,24.6,-1.1,29.12,WSW,248,3.5,3.5,32,0.00,CLR,,0.00,WeatherDisplay:10.37,2013-11-24 22:11:00,
2013-11-24 16:12:00,24.6,-1.1,29.12,SSE,158,4.6,4.6,32,0.00,CLR,,0.00,WeatherDisplay:10.37,2013-11-24 22:12:00,
2013-11-24 16:13:00,24.4,-1.3,29.12,WSW,248,5.9,5.9,32,0.00,CLR,,0.00,WeatherDisplay:10.37,2013-11-24 22:13:00,
2013-11-24 16:14:00,24.4,-1.3,29.12,SSW,202,5.8,5.8,32,0.00,CLR,,0.00,WeatherDisplay:10.37,2013-11-24 22:14:00,
2013-11-24 16:16:00,24.4,-1.3,29.12,SW,225,5.8,5.8,32,0.00,CLR,,0.00,WeatherDisplay:10.37,2013-11-24 22:16:00,
2013-11-24 16:17:00,24.4,-1.3,29.12,South,180,6.9,6.9,32,0.00,CLR,,0.00,WeatherDisplay:10.37,2013-11-24 22:17:00,
2013-11-24 16:18:00,24.4,-1.3,29.12,SSW,202,5.8,5.8,32,0.00,CLR,,0.00,WeatherDisplay:10.37,2013-11-24 22:18:00,
2013-11-24 16:19:00,24.3,-1.4,29.12,SW,225,5.8,5.8,32,0.00,CLR,,0.00,WeatherDisplay:10.37,2013-11-24 22:19:00,
2013-11-24 16:21:00,24.3,-1.4,29.12,WSW,248,5.8,5.8,32,0.00,CLR,,0.00,WeatherDisplay:10.37,2013-11-24 22:21:00,
2013-11-24 16:22:00,24.3,-1.4,29.12,West,270,3.8,3.8,32,0.00,CLR,,0.00,WeatherDisplay:10.37,2013-11-24 22:22:00,
2013-11-24 16:23:00,24.1,-1.6,29.12,South,180,6.9,6.9,32,0.00,CLR,,0.00,WeatherDisplay:10.37,2013-11-24 22:23:00,
2013-11-24 16:24:00,24.1,-1.6,29.15,South,180,5.8,5.8,32,0.00,CLR,,0.00,WeatherDisplay:10.37,2013-11-24 22:24:00,
2013-11-24 16:26:00,23.9,-1.7,29.15,SSW,202,4.6,4.6,32,0.00,CLR,,0.00,WeatherDisplay:10.37,2013-11-24 22:26:00,
2013-11-24 16:27:00,23.9,-1.7,29.15,SSW,202,5.9,5.9,32,0.00,CLR,,0.00,WeatherDisplay:10.37,2013-11-24 22:27:00,
2013-11-24 16:28:00,23.9,-1.7,29.15,SSE,158,10.4,10.4,32,0.00,CLR,,0.00,WeatherDisplay:10.37,2013-11-24 22:28:00,
2013-11-24 16:29:00,23.9,-1.7,29.15,SSW,202,11.5,11.5,32,0.00,CLR,,0.00,WeatherDisplay:10.37,2013-11-24 22:29:00,
2013-11-24 16:30:00,23.9,-1.7,29.15,South,180,8.1,8.1,32,0.00,CLR,,0.00,WeatherDisplay:10.37,2013-11-24 22:30:00,
2013-11-24 16:31:00,23.9,-1.7,29.15,SSW,202,4.6,4.6,32,0.00,CLR,,0.00,WeatherDisplay:10.37,2013-11-24 22:31:00,
2013-11-24 16:32:00,23.9,-1.7,29.15,SSW,202,6.9,6.9,32,0.00,CLR,,0.00,WeatherDisplay:10.37,2013-11-24 22:32:00,
2013-11-24 16:33:00,23.9,-1.7,29.15,SSW,202,6.9,6.9,32,0.00,CLR,,0.00,WeatherDisplay:10.37,2013-11-24 22:33:00,
2013-11-24 16:34:00,23.9,-1.7,29.15,SSW,202,6.9,6.9,32,0.00,CLR,,0.00,WeatherDisplay:10.37,2013-11-24 22:34:00,
2013-11-24 16:35:00,23.7,-1.9,29.15,SSW,202,3.5,3.5,32,0.00,CLR,,0.00,WeatherDisplay:10.37,2013-11-24 22:35:00,
2013-11-24 16:37:00,23.7,-1.9,29.15,SSE,158,5.8,5.8,32,0.00,CLR,,0.00,WeatherDisplay:10.37,2013-11-24 22:37:00,
2013-11-24 16:38:00,23.7,-1.9,29.15,SSE,158,7.1,7.1,32,0.00,CLR,,0.00,WeatherDisplay:10.37,2013-11-24 22:38:00,
2013-11-24 16:39:00,23.7,-1.9,29.15,South,180,9.2,9.2,32,0.00,CLR,,0.00,WeatherDisplay:10.37,2013-11-24 22:39:00,
2013-11-24 16:40:00,23.7,-1.9,29.15,South,180,6.9,6.9,32,0.00,CLR,,0.00,WeatherDisplay:10.37,2013-11-24 22:40:00,
2013-11-24 16:42:00,23.7,-1.9,29.15,SSW,202,6.9,6.9,32,0.00,CLR,,0.00,WeatherDisplay:10.37,2013-11-24 22:42:00,
2013-11-24 16:43:00,23.7,-1.9,29.15,SSW,202,6.9,6.9,32,0.00,CLR,,0.00,WeatherDisplay:10.37,2013-11-24 22:43:00,
2013-11-24 16:44:00,23.7,-1.9,29.15,SSE,158,8.1,8.1,32,0.00,CLR,,0.00,WeatherDisplay:10.37,2013-11-24 22:44:00,
2013-11-24 16:45:00,23.7,-1.9,29.15,SSW,202,5.8,5.8,32,0.00,CLR,,0.00,WeatherDisplay:10.37,2013-11-24 22:45:00,
2013-11-24 16:47:00,23.5,-2.1,29.15,SW,225,4.6,4.6,32,0.00,CLR,,0.00,WeatherDisplay:10.37,2013-11-24 22:47:00,
2013-11-24 16:48:00,23.5,-2.1,29.15,NE,45,5.9,5.9,32,0.00,CLR,,0.00,WeatherDisplay:10.37,2013-11-24 22:48:00,
2013-11-24 16:49:00,23.5,-2.1,29.15,SSW,202,5.8,5.8,32,0.00,CLR,,0.00,WeatherDisplay:10.37,2013-11-24 22:49:00,
2013-11-24 16:50:00,23.5,-2.1,29.15,South,180,5.8,5.8,32,0.00,CLR,,0.00,WeatherDisplay:10.37,2013-11-24 22:50:00,
2013-11-24 16:52:00,23.4,-2.2,29.15,SSW,202,8.1,8.1,32,0.00,CLR,,0.00,WeatherDisplay:10.37,2013-11-24 22:52:00,
2013-11-24 16:53:00,23.4,-2.2,29.15,SSE,158,4.6,4.6,32,0.00,CLR,,0.00,WeatherDisplay:10.37,2013-11-24 22:53:00,
2013-11-24 16:54:00,23.4,-2.2,29.15,SSW,202,5.9,5.9,32,0.00,CLR,,0.00,WeatherDisplay:10.37,2013-11-24 22:54:00,
2013-11-24 16:55:00,23.4,-2.2,29.15,South,180,5.8,5.8,32,0.00,CLR,,0.00,WeatherDisplay:10.37,2013-11-24 22:55:00,
2013-11-24 16:56:00,23.4,-2.2,29.15,SSW,202,4.6,4.6,32,0.00,CLR,,0.00,WeatherDisplay:10.37,2013-11-24 22:56:00,
2013-11-24 16:57:00,23.4,-2.2,29.15,SSW,202,4.6,4.6,32,0.00,CLR,,0.00,WeatherDisplay:10.37,2013-11-24 22:57:00,
2013-11-24 16:58:00,23.2,-2.4,29.15,SW,225,6.0,6.0,32,0.00,CLR,,0.00,WeatherDisplay:10.37,2013-11-24 22:58:00,
2013-11-24 16:59:00,23.2,-2.4,29.15,South,180,5.8,5.8,32,0.00,CLR,,0.00,WeatherDisplay:10.37,2013-11-24 22:59:00,
2013-11-24 17:00:00,23.2,-2.4,29.15,South,180,3.5,3.5,32,0.00,CLR,,0.00,WeatherDisplay:10.37,2013-11-24 23:00:00,
2013-11-24 17:01:00,23.2,-2.4,29.15,SSW,202,5.8,5.8,32,0.00,CLR,,0.00,WeatherDisplay:10.37,2013-11-24 23:01:00,
2013-11-24 17:03:00,23.0,-1.9,29.15,West,270,3.5,3.5,33,0.00,CLR,,0.00,WeatherDisplay:10.37,2013-11-24 23:03:00,
2013-11-24 17:04:00,23.0,-1.9,29.15,SSW,202,3.5,3.5,33,0.00,CLR,,0.00,WeatherDisplay:10.37,2013-11-24 23:04:00,
2013-11-24 17:05:00,22.8,-2.0,29.15,SSW,202,4.0,4.0,33,0.00,CLR,,0.00,WeatherDisplay:10.37,2013-11-24 23:05:00,
2013-11-24 17:06:00,23.0,-1.9,29.15,West,270,7.4,7.4,33,0.00,CLR,,0.00,WeatherDisplay:10.37,2013-11-24 23:06:00,
2013-11-24 17:08:00,23.0,-1.9,29.15,SSW,202,5.8,5.8,33,0.00,CLR,,0.00,WeatherDisplay:10.37,2013-11-24 23:08:00,
2013-11-24 17:09:00,23.0,-1.9,29.15,East,90,5.8,5.8,33,0.00,CLR,,0.00,WeatherDisplay:10.37,2013-11-24 23:09:00,
2013-11-24 17:10:00,23.0,-1.9,29.12,SSW,202,5.8,5.8,33,0.00,CLR,,0.00,WeatherDisplay:10.37,2013-11-24 23:10:00,
2013-11-24 17:11:00,23.0,-1.9,29.12,SW,225,8.1,8.1,33,0.00,CLR,,0.00,WeatherDisplay:10.37,2013-11-24 23:11:00,
2013-11-24 17:14:00,23.0,-1.9,29.12,SSW,202,6.9,6.9,33,0.00,CLR,,0.00,WeatherDisplay:10.37,2013-11-24 23:14:00,
2013-11-24 17:15:00,23.0,-1.9,29.12,SW,225,6.9,6.9,33,0.00,CLR,,0.00,WeatherDisplay:10.37,2013-11-24 23:15:00,
2013-11-24 17:16:00,23.0,-1.9,29.12,SSW,202,5.8,5.8,33,0.00,CLR,,0.00,WeatherDisplay:10.37,2013-11-24 23:16:00,
2013-11-24 17:17:00,23.2,-2.4,29.12,SW,225,8.1,8.1,32,0.00,CLR,,0.00,WeatherDisplay:10.37,2013-11-24 23:17:00,
2013-11-24 17:19:00,23.2,-2.4,29.12,WNW,292,6.9,6.9,32,0.00,CLR,,0.00,WeatherDisplay:10.37,2013-11-24 23:19:00,
2013-11-24 17:20:00,23.2,-2.4,29.12,SSW,202,11.5,11.5,32,0.00,CLR,,0.00,WeatherDisplay:10.37,2013-11-24 23:20:00,
2013-11-24 17:22:00,23.2,-1.7,29.12,SSE,158,6.9,6.9,33,0.00,CLR,,0.00,WeatherDisplay:10.37,2013-11-24 23:22:00,
2013-11-24 17:24:00,23.2,-2.4,29.12,SW,225,5.8,6.2,32,0.00,CLR,,0.00,WeatherDisplay:10.37,2013-11-24 23:24:00,
2013-11-24 17:25:00,23.2,-2.4,29.12,SW,225,10.4,10.4,32,0.00,CLR,,0.00,WeatherDisplay:10.37,2013-11-24 23:25:00,
2013-11-24 17:27:00,23.2,-1.7,29.12,WSW,248,5.6,5.6,33,0.00,CLR,,0.00,WeatherDisplay:10.37,2013-11-24 23:27:00,
2013-11-24 17:29:00,23.2,-1.7,29.12,SW,225,6.4,6.4,33,0.00,CLR,,0.00,WeatherDisplay:10.37,2013-11-24 23:29:00,
2013-11-24 17:30:00,23.2,-1.7,29.12,WSW,248,6.9,6.9,33,0.00,CLR,,0.00,WeatherDisplay:10.37,2013-11-24 23:30:00,
2013-11-24 17:32:00,23.2,-1.7,29.12,WSW,248,6.9,6.9,33,0.00,CLR,,0.00,WeatherDisplay:10.37,2013-11-24 23:32:00,
2013-11-24 17:33:00,23.2,-1.7,29.12,WSW,248,10.4,10.4,33,0.00,CLR,,0.00,WeatherDisplay:10.37,2013-11-24 23:33:00,
2013-11-24 17:35:00,23.2,-1.7,29.12,SSW,202,8.1,8.1,33,0.00,CLR,,0.00,WeatherDisplay:10.37,2013-11-24 23:35:00,
2013-11-24 17:36:00,23.2,-1.7,29.12,SSW,202,8.1,8.1,33,0.00,CLR,,0.00,WeatherDisplay:10.37,2013-11-24 23:36:00,
2013-11-24 17:38:00,23.2,-1.7,29.12,SSW,202,7.1,7.1,33,0.00,CLR,,0.00,WeatherDisplay:10.37,2013-11-24 23:38:00,
2013-11-24 17:40:00,23.2,-1.7,29.12,SSW,202,4.6,4.6,33,0.00,CLR,,0.00,WeatherDisplay:10.37,2013-11-24 23:40:00,
2013-11-24 17:41:00,23.0,-1.9,29.12,NW,315,3.6,3.6,33,0.00,CLR,,0.00,WeatherDisplay:10.37,2013-11-24 23:41:00,
2013-11-24 17:43:00,23.0,-1.9,29.12,SSW,202,6.0,6.0,33,0.00,CLR,,0.00,WeatherDisplay:10.37,2013-11-24 23:43:00,
2013-11-24 17:45:00,22.8,-2.0,29.12,NE,45,4.6,4.6,33,0.00,CLR,,0.00,WeatherDisplay:10.37,2013-11-24 23:45:00,
2013-11-24 17:46:00,22.8,-2.0,29.12,SSW,202,5.4,5.4,33,0.00,CLR,,0.00,WeatherDisplay:10.37,2013-11-24 23:46:00,
2013-11-24 17:48:00,22.8,-2.0,29.12,SSW,202,9.8,9.8,33,0.00,CLR,,0.00,WeatherDisplay:10.37,2013-11-24 23:48:00,
2013-11-24 17:50:00,22.8,-2.0,29.12,SSW,202,7.4,7.4,33,0.00,CLR,,0.00,WeatherDisplay:10.37,2013-11-24 23:50:00,
2013-11-24 17:51:00,22.8,-2.0,29.12,SSW,202,6.9,6.9,33,0.00,CLR,,0.00,WeatherDisplay:10.37,2013-11-24 23:51:00,
2013-11-24 17:54:00,22.8,-2.0,29.12,SSW,202,5.8,5.8,33,0.00,CLR,,0.00,WeatherDisplay:10.37,2013-11-24 23:54:00,
2013-11-24 17:55:00,22.8,-2.0,29.12,South,180,6.0,6.0,33,0.00,CLR,,0.00,WeatherDisplay:10.37,2013-11-24 23:55:00,
2013-11-24 17:56:00,22.8,-2.0,29.12,SSW,202,9.2,9.2,33,0.00,CLR,,0.00,WeatherDisplay:10.37,2013-11-24 23:56:00,
2013-11-24 17:59:00,22.8,-2.0,29.12,South,180,5.8,5.8,33,0.00,CLR,,0.00,WeatherDisplay:10.37,2013-11-24 23:59:00,
2013-11-24 18:00:00,22.8,-2.0,29.12,SSW,202,5.8,5.8,33,0.00,CLR,,0.00,WeatherDisplay:10.37,2013-11-25 00:00:00,
2013-11-24 18:01:00,22.8,-2.0,29.12,South,180,5.4,5.4,33,0.00,CLR,,0.00,WeatherDisplay:10.37,2013-11-25 00:01:00,
2013-11-24 18:04:00,22.8,-2.0,29.12,South,180,5.8,5.8,33,0.00,CLR,,0.00,WeatherDisplay:10.37,2013-11-25 00:04:00,
2013-11-24 18:05:00,22.8,-2.0,29.12,SSW,202,6.2,6.2,33,0.00,CLR,,0.00,WeatherDisplay:10.37,2013-11-25 00:05:00,
2013-11-24 18:06:00,22.8,-2.0,29.12,SSW,202,5.8,6.0,33,0.00,CLR,,0.00,WeatherDisplay:10.37,2013-11-25 00:06:00,
2013-11-24 18:07:00,22.8,-2.0,29.12,South,180,5.8,5.8,33,0.00,CLR,,0.00,WeatherDisplay:10.37,2013-11-25 00:07:00,
2013-11-24 18:09:00,22.8,-2.0,29.12,SSW,202,10.4,10.4,33,0.00,CLR,,0.00,WeatherDisplay:10.37,2013-11-25 00:09:00,
2013-11-24 18:11:00,22.8,-1.4,29.12,SSW,202,4.9,4.9,34,0.00,CLR,,0.00,WeatherDisplay:10.37,2013-11-25 00:11:00,
2013-11-24 18:12:00,22.8,-1.4,29.12,WSW,248,4.6,4.6,34,0.00,CLR,,0.00,WeatherDisplay:10.37,2013-11-25 00:12:00,
2013-11-24 18:14:00,22.8,-1.4,29.12,South,180,10.4,10.4,34,0.00,CLR,,0.00,WeatherDisplay:10.37,2013-11-25 00:14:00,
2013-11-24 18:16:00,22.8,-1.4,29.12,SSW,202,7.4,7.4,34,0.00,CLR,,0.00,WeatherDisplay:10.37,2013-11-25 00:16:00,
2013-11-24 18:17:00,22.8,-1.4,29.12,SE,135,6.9,6.9,34,0.00,CLR,,0.00,WeatherDisplay:10.37,2013-11-25 00:17:00,
2013-11-24 18:19:00,22.8,-1.4,29.12,SW,225,6.9,6.9,34,0.00,CLR,,0.00,WeatherDisplay:10.37,2013-11-25 00:19:00,
2013-11-24 18:21:00,22.8,-1.4,29.12,South,180,5.8,5.8,34,0.00,CLR,,0.00,WeatherDisplay:10.37,2013-11-25 00:21:00,
2013-11-24 18:22:00,22.8,-1.4,29.12,WSW,248,3.5,3.5,34,0.00,CLR,,0.00,WeatherDisplay:10.37,2013-11-25 00:22:00,
2013-11-24 18:23:00,22.8,-1.4,29.12,WSW,248,5.8,5.8,34,0.00,CLR,,0.00,WeatherDisplay:10.37,2013-11-25 00:23:00,
2013-11-24 18:25:00,22.6,-1.6,29.06,WSW,248,5.8,5.8,34,0.00,CLR,,0.00,WeatherDisplay:10.37,2013-11-25 00:25:00,
2013-11-24 18:26:00,22.6,-1.6,29.06,South,180,9.2,9.2,34,0.00,CLR,,0.00,WeatherDisplay:10.37,2013-11-25 00:26:00,
2013-11-24 18:27:00,22.6,-1.6,29.06,SSW,202,9.2,9.2,34,0.00,CLR,,0.00,WeatherDisplay:10.37,2013-11-25 00:27:00,
2013-11-24 18:28:00,22.8,-1.4,29.06,WSW,248,8.1,8.1,34,0.00,CLR,,0.00,WeatherDisplay:10.37,2013-11-25 00:28:00,
2013-11-24 18:30:00,22.8,-1.4,29.06,WSW,248,5.8,5.8,34,0.00,CLR,,0.00,WeatherDisplay:10.37,2013-11-25 00:30:00,
2013-11-24 18:32:00,22.6,-1.6,29.06,South,180,4.6,4.6,34,0.00,CLR,,0.00,WeatherDisplay:10.37,2013-11-25 00:32:00,
2013-11-24 18:33:00,22.6,-1.6,29.06,SSE,158,6.9,6.9,34,0.00,CLR,,0.00,WeatherDisplay:10.37,2013-11-25 00:33:00,
2013-11-24 18:35:00,22.6,-1.6,29.06,SW,225,3.5,3.5,34,0.00,CLR,,0.00,WeatherDisplay:10.37,2013-11-25 00:35:00,
2013-11-24 18:37:00,22.6,-1.6,29.06,South,180,8.1,8.1,34,0.00,CLR,,0.00,WeatherDisplay:10.37,2013-11-25 00:37:00,
2013-11-24 18:38:00,22.6,-1.6,29.06,South,180,6.9,6.9,34,0.00,CLR,,0.00,WeatherDisplay:10.37,2013-11-25 00:38:00,
2013-11-24 18:40:00,22.6,-1.6,29.09,SSW,202,5.8,5.8,34,0.00,CLR,,0.00,WeatherDisplay:10.37,2013-11-25 00:40:00,
2013-11-24 18:42:00,22.6,-1.6,29.09,WSW,248,3.5,3.5,34,0.00,CLR,,0.00,WeatherDisplay:10.37,2013-11-25 00:42:00,
2013-11-24 18:43:00,22.6,-1.6,29.09,SSW,202,6.9,6.9,34,0.00,CLR,,0.00,WeatherDisplay:10.37,2013-11-25 00:43:00,
2013-11-24 18:45:00,22.6,-1.0,29.09,SSW,202,5.8,5.8,35,0.00,CLR,,0.00,WeatherDisplay:10.37,2013-11-25 00:45:00,
2013-11-24 18:47:00,22.6,-1.0,29.09,WSW,248,6.9,6.9,35,0.00,CLR,,0.00,WeatherDisplay:10.37,2013-11-25 00:47:00,
2013-11-24 18:48:00,22.6,-1.0,29.09,SW,225,5.8,5.8,35,0.00,CLR,,0.00,WeatherDisplay:10.37,2013-11-25 00:48:00,
2013-11-24 18:50:00,22.6,-1.0,29.09,SW,225,5.8,5.8,35,0.00,CLR,,0.00,WeatherDisplay:10.37,2013-11-25 00:50:00,
2013-11-24 18:52:00,22.6,-1.0,29.09,SSW,202,6.9,6.9,35,0.00,CLR,,0.00,WeatherDisplay:10.37,2013-11-25 00:52:00,
2013-11-24 18:53:00,22.6,-1.0,29.09,SE,135,6.9,6.9,35,0.00,CLR,,0.00,WeatherDisplay:10.37,2013-11-25 00:53:00,
2013-11-24 18:54:00,22.6,-1.0,29.09,South,180,8.1,8.1,35,0.00,CLR,,0.00,WeatherDisplay:10.37,2013-11-25 00:54:00,
2013-11-24 18:55:00,22.6,-1.0,29.09,SSE,158,10.4,10.4,35,0.00,CLR,,0.00,WeatherDisplay:10.37,2013-11-25 00:55:00,
2013-11-24 18:57:00,22.6,-1.0,29.09,West,270,9.2,9.2,35,0.00,CLR,,0.00,WeatherDisplay:10.37,2013-11-25 00:57:00,
2013-11-24 18:58:00,22.6,-1.0,29.09,SSE,158,8.1,8.1,35,0.00,CLR,,0.00,WeatherDisplay:10.37,2013-11-25 00:58:00,
2013-11-24 19:00:00,22.6,-1.0,29.09,South,180,5.8,5.8,35,0.00,CLR,,0.00,WeatherDisplay:10.37,2013-11-25 01:00:00,
2013-11-24 19:01:00,22.6,-1.0,29.09,WSW,248,7.1,7.1,35,0.00,CLR,,0.00,WeatherDisplay:10.37,2013-11-25 01:01:00,
2013-11-24 19:02:00,22.5,-1.1,29.09,SSW,202,6.9,6.9,35,0.00,CLR,,0.00,WeatherDisplay:10.37,2013-11-25 01:02:00,
2013-11-24 19:03:00,22.5,-1.1,29.09,SSW,202,6.9,6.9,35,0.00,CLR,,0.00,WeatherDisplay:10.37,2013-11-25 01:03:00,
2013-11-24 19:04:00,22.5,-1.1,29.09,South,180,6.9,6.9,35,0.00,CLR,,0.00,WeatherDisplay:10.37,2013-11-25 01:04:00,
2013-11-24 19:05:00,22.5,-1.1,29.09,SSW,202,6.9,6.9,35,0.00,CLR,,0.00,WeatherDisplay:10.37,2013-11-25 01:05:00,
2013-11-24 19:06:00,22.5,-1.1,29.09,South,180,5.8,5.8,35,0.00,CLR,,0.00,WeatherDisplay:10.37,2013-11-25 01:06:00,
2013-11-24 19:08:00,22.5,-1.1,29.09,SW,225,8.1,8.1,35,0.00,CLR,,0.00,WeatherDisplay:10.37,2013-11-25 01:08:00,
2013-11-24 19:09:00,22.5,-1.1,29.09,SW,225,10.4,10.4,35,0.00,CLR,,0.00,WeatherDisplay:10.37,2013-11-25 01:09:00,
2013-11-24 19:10:00,22.5,-1.1,29.09,SSE,158,10.4,10.4,35,0.00,CLR,,0.00,WeatherDisplay:10.37,2013-11-25 01:10:00,
2013-11-24 19:11:00,22.5,-1.1,29.09,South,180,5.8,5.8,35,0.00,CLR,,0.00,WeatherDisplay:10.37,2013-11-25 01:11:00,
2013-11-24 19:13:00,22.3,-1.3,29.09,South,180,5.8,5.8,35,0.00,CLR,,0.00,WeatherDisplay:10.37,2013-11-25 01:13:00,
2013-11-24 19:14:00,22.3,-1.3,29.09,South,180,4.6,4.6,35,0.00,CLR,,0.00,WeatherDisplay:10.37,2013-11-25 01:14:00,
2013-11-24 19:16:00,22.5,-1.1,29.09,SSW,202,8.1,8.1,35,0.00,CLR,,0.00,WeatherDisplay:10.37,2013-11-25 01:16:00,
2013-11-24 19:18:00,22.5,-1.1,29.09,South,180,8.1,8.1,35,0.00,CLR,,0.00,WeatherDisplay:10.37,2013-11-25 01:18:00,
2013-11-24 19:19:00,22.5,-0.5,29.09,SSW,202,8.1,8.1,36,0.00,CLR,,0.00,WeatherDisplay:10.37,2013-11-25 01:19:00,
2013-11-24 19:21:00,22.5,-0.5,29.09,WSW,248,9.2,9.2,36,0.00,CLR,,0.00,WeatherDisplay:10.37,2013-11-25 01:21:00,
2013-11-24 19:23:00,22.3,-0.7,29.09,South,180,4.6,4.6,36,0.00,CLR,,0.00,WeatherDisplay:10.37,2013-11-25 01:23:00,
2013-11-24 19:24:00,22.3,-0.7,29.09,SSW,202,4.6,4.6,36,0.00,CLR,,0.00,WeatherDisplay:10.37,2013-11-25 01:24:00,
2013-11-24 19:25:00,22.3,-0.7,29.06,SSW,202,4.6,4.6,36,0.00,CLR,,0.00,WeatherDisplay:10.37,2013-11-25 01:25:00,
2013-11-24 19:26:00,22.3,-0.7,29.06,WSW,248,5.4,5.4,36,0.00,CLR,,0.00,WeatherDisplay:10.37,2013-11-25 01:26:00,
2013-11-24 19:28:00,22.3,-0.7,29.06,SE,135,6.9,6.9,36,0.00,CLR,,0.00,WeatherDisplay:10.37,2013-11-25 01:28:00,
2013-11-24 19:29:00,22.3,-0.7,29.06,SSW,202,8.1,8.1,36,0.00,CLR,,0.00,WeatherDisplay:10.37,2013-11-25 01:29:00,
2013-11-24 19:30:00,22.3,-0.7,29.06,South,180,9.2,9.2,36,0.00,CLR,,0.00,WeatherDisplay:10.37,2013-11-25 01:30:00,
2013-11-24 19:31:00,22.5,-0.5,29.06,SSW,202,6.9,6.9,36,0.00,CLR,,0.00,WeatherDisplay:10.37,2013-11-25 01:31:00,
2013-11-24 19:33:00,22.5,-0.5,29.06,SSW,202,8.1,8.1,36,0.00,CLR,,0.00,WeatherDisplay:10.37,2013-11-25 01:33:00,
2013-11-24 19:34:00,22.5,-0.5,29.06,SE,135,5.6,5.6,36,0.00,CLR,,0.00,WeatherDisplay:10.37,2013-11-25 01:34:00,
2013-11-24 19:35:00,22.5,-0.5,29.06,West,270,5.8,5.8,36,0.00,CLR,,0.00,WeatherDisplay:10.37,2013-11-25 01:35:00,
2013-11-24 19:36:00,22.5,-0.5,29.06,WNW,292,10.4,10.4,36,0.00,CLR,,0.00,WeatherDisplay:10.37,2013-11-25 01:36:00,
2013-11-24 19:37:00,22.5,-0.5,29.06,South,180,8.1,8.1,36,0.00,CLR,,0.00,WeatherDisplay:10.37,2013-11-25 01:37:00,
2013-11-24 19:39:00,22.3,-0.7,29.06,ESE,112,3.6,3.6,36,0.00,CLR,,0.00,WeatherDisplay:10.37,2013-11-25 01:39:00,
2013-11-24 19:40:00,22.5,-0.5,29.06,South,180,10.4,10.4,36,0.00,CLR,,0.00,WeatherDisplay:10.37,2013-11-25 01:40:00,
2013-11-24 19:41:00,22.5,-0.5,29.06,ESE,112,10.4,10.4,36,0.00,CLR,,0.00,WeatherDisplay:10.37,2013-11-25 01:41:00,
2013-11-24 19:42:00,22.5,-0.5,29.06,South,180,10.4,10.4,36,0.00,CLR,,0.00,WeatherDisplay:10.37,2013-11-25 01:42:00,
2013-11-24 19:44:00,22.5,-0.5,29.06,WSW,248,8.1,8.1,36,0.00,CLR,,0.00,WeatherDisplay:10.37,2013-11-25 01:44:00,
2013-11-24 19:45:00,22.5,-0.5,29.06,SSW,202,5.8,5.8,36,0.00,CLR,,0.00,WeatherDisplay:10.37,2013-11-25 01:45:00,
2013-11-24 19:46:00,22.5,-0.5,29.06,SSW,202,6.9,6.9,36,0.00,CLR,,0.00,WeatherDisplay:10.37,2013-11-25 01:46:00,
2013-11-24 19:47:00,22.5,-0.5,29.06,SSW,202,6.9,6.9,36,0.00,CLR,,0.00,WeatherDisplay:10.37,2013-11-25 01:47:00,
2013-11-24 19:49:00,22.3,-0.7,29.06,South,180,5.8,5.8,36,0.00,CLR,,0.00,WeatherDisplay:10.37,2013-11-25 01:49:00,
2013-11-24 19:50:00,22.3,-0.7,29.06,SSE,158,10.7,10.7,36,0.00,CLR,,0.00,WeatherDisplay:10.37,2013-11-25 01:50:00,
2013-11-24 19:51:00,22.5,-0.5,29.06,North,0,10.4,10.4,36,0.00,CLR,,0.00,WeatherDisplay:10.37,2013-11-25 01:51:00,
2013-11-24 19:52:00,22.5,-0.5,29.06,South,180,11.5,11.5,36,0.00,CLR,,0.00,WeatherDisplay:10.37,2013-11-25 01:52:00,
2013-11-24 19:53:00,22.5,-0.5,29.06,West,270,11.5,11.5,36,0.00,CLR,,0.00,WeatherDisplay:10.37,2013-11-25 01:53:00,
2013-11-24 19:54:00,22.6,-0.4,29.06,WSW,248,8.1,8.1,36,0.00,CLR,,0.00,WeatherDisplay:10.37,2013-11-25 01:54:00,
2013-11-24 19:55:00,22.5,-0.5,29.00,SW,225,6.9,6.9,36,0.00,CLR,,0.00,WeatherDisplay:10.37,2013-11-25 01:55:00,
2013-11-24 19:57:00,22.5,-0.5,29.00,SSW,202,6.0,6.0,36,0.00,CLR,,0.00,WeatherDisplay:10.37,2013-11-25 01:57:00,
2013-11-24 19:58:00,22.5,-0.5,29.00,WSW,248,5.9,5.9,36,0.00,CLR,,0.00,WeatherDisplay:10.37,2013-11-25 01:58:00,
2013-11-24 19:59:00,22.3,-0.7,29.00,SSW,202,5.8,5.8,36,0.00,CLR,,0.00,WeatherDisplay:10.37,2013-11-25 01:59:00,
2013-11-24 20:00:00,22.3,-0.7,29.00,SSW,202,4.6,4.6,36,0.00,CLR,,0.00,WeatherDisplay:10.37,2013-11-25 02:00:00,
2013-11-24 20:02:00,22.5,-0.5,29.00,SSE,158,11.5,11.5,36,0.00,CLR,,0.00,WeatherDisplay:10.37,2013-11-25 02:02:00,
2013-11-24 20:03:00,22.5,-0.5,29.00,SSW,202,10.4,10.4,36,0.00,CLR,,0.00,WeatherDisplay:10.37,2013-11-25 02:03:00,
2013-11-24 20:04:00,22.5,-0.5,29.00,SSW,202,4.6,4.6,36,0.00,CLR,,0.00,WeatherDisplay:10.37,2013-11-25 02:04:00,
2013-11-24 20:05:00,22.5,0.1,29.00,SW,225,3.5,3.5,37,0.00,CLR,,0.00,WeatherDisplay:10.37,2013-11-25 02:05:00,
2013-11-24 20:07:00,22.5,-0.5,29.00,SSW,202,6.9,6.9,36,0.00,CLR,,0.00,WeatherDisplay:10.37,2013-11-25 02:07:00,
2013-11-24 20:08:00,22.5,0.1,29.00,SSW,202,7.4,7.4,37,0.00,CLR,,0.00,WeatherDisplay:10.37,2013-11-25 02:08:00,
2013-11-24 20:09:00,22.5,0.1,29.00,SSE,158,6.9,6.9,37,0.00,CLR,,0.00,WeatherDisplay:10.37,2013-11-25 02:09:00,
2013-11-24 20:10:00,22.5,0.1,29.00,SSW,202,5.8,5.8,37,0.00,CLR,,0.00,WeatherDisplay:10.37,2013-11-25 02:10:00,
2013-11-24 20:12:00,22.5,-0.5,29.00,SSW,202,8.1,8.1,36,0.00,CLR,,0.00,WeatherDisplay:10.37,2013-11-25 02:12:00,
2013-11-24 20:13:00,22.5,-0.5,29.00,SSE,158,6.9,6.9,36,0.00,CLR,,0.00,WeatherDisplay:10.37,2013-11-25 02:13:00,
2013-11-24 20:14:00,22.5,0.1,29.00,ESE,112,5.8,5.8,37,0.00,CLR,,0.00,WeatherDisplay:10.37,2013-11-25 02:14:00,
2013-11-24 20:15:00,22.5,0.1,29.00,West,270,4.6,4.6,37,0.00,CLR,,0.00,WeatherDisplay:10.37,2013-11-25 02:15:00,
2013-11-24 20:17:00,22.5,0.1,29.00,SSW,202,10.4,10.4,37,0.00,CLR,,0.00,WeatherDisplay:10.37,2013-11-25 02:17:00,
2013-11-24 20:18:00,22.5,0.1,29.00,SW,225,10.4,10.4,37,0.00,CLR,,0.00,WeatherDisplay:10.37,2013-11-25 02:18:00,
2013-11-24 20:19:00,22.5,0.1,29.00,WSW,248,7.6,7.6,37,0.00,CLR,,0.00,WeatherDisplay:10.37,2013-11-25 02:19:00,
2013-11-24 20:20:00,22.5,0.1,29.00,NNW,338,8.1,8.1,37,0.00,CLR,,0.00,WeatherDisplay:10.37,2013-11-25 02:20:00,
2013-11-24 20:21:00,22.5,0.1,29.00,SSW,202,8.1,8.1,37,0.00,CLR,,0.00,WeatherDisplay:10.37,2013-11-25 02:21:00,
2013-11-24 20:23:00,22.3,-0.1,29.00,SSW,202,5.8,5.8,37,0.00,CLR,,0.00,WeatherDisplay:10.37,2013-11-25 02:23:00,
2013-11-24 20:24:00,22.5,0.1,29.03,SW,225,6.2,6.2,37,0.00,CLR,,0.00,WeatherDisplay:10.37,2013-11-25 02:24:00,
2013-11-24 20:25:00,22.5,0.1,29.03,SW,225,7.6,7.6,37,0.00,CLR,,0.00,WeatherDisplay:10.37,2013-11-25 02:25:00,
2013-11-24 20:26:00,22.5,0.1,29.03,SE,135,8.1,8.1,37,0.00,CLR,,0.00,WeatherDisplay:10.37,2013-11-25 02:26:00,
2013-11-24 20:28:00,22.5,0.1,29.03,SSW,202,8.1,8.1,37,0.00,CLR,,0.00,WeatherDisplay:10.37,2013-11-25 02:28:00,
2013-11-24 20:29:00,22.5,0.1,29.03,WSW,248,10.4,10.4,37,0.00,CLR,,0.00,WeatherDisplay:10.37,2013-11-25 02:29:00,
2013-11-24 20:30:00,22.5,0.1,29.03,SE,135,6.9,7.6,37,0.00,CLR,,0.00,WeatherDisplay:10.37,2013-11-25 02:30:00,
2013-11-24 20:31:00,22.5,0.1,29.03,SSE,158,5.8,5.8,37,0.00,CLR,,0.00,WeatherDisplay:10.37,2013-11-25 02:31:00,
2013-11-24 20:33:00,22.5,0.1,29.03,SSW,202,9.8,9.8,37,0.00,CLR,,0.00,WeatherDisplay:10.37,2013-11-25 02:33:00,
2013-11-24 20:34:00,22.5,0.1,29.03,SSE,158,9.2,9.2,37,0.00,CLR,,0.00,WeatherDisplay:10.37,2013-11-25 02:34:00,
2013-11-24 20:35:00,22.6,0.2,29.03,NNE,22,9.2,9.2,37,0.00,CLR,,0.00,WeatherDisplay:10.37,2013-11-25 02:35:00,
2013-11-24 20:37:00,22.5,0.1,29.03,WNW,292,5.8,5.8,37,0.00,CLR,,0.00,WeatherDisplay:10.37,2013-11-25 02:37:00,
2013-11-24 20:38:00,22.5,0.1,29.03,SSW,202,8.1,8.1,37,0.00,CLR,,0.00,WeatherDisplay:10.37,2013-11-25 02:38:00,
2013-11-24 20:39:00,22.5,0.1,29.03,WSW,248,8.1,8.1,37,0.00,CLR,,0.00,WeatherDisplay:10.37,2013-11-25 02:39:00,
2013-11-24 20:40:00,22.5,0.1,29.03,NW,315,6.9,6.9,37,0.00,CLR,,0.00,WeatherDisplay:10.37,2013-11-25 02:40:00,
2013-11-24 20:42:00,22.5,0.1,29.03,SSW,202,9.2,9.2,37,0.00,CLR,,0.00,WeatherDisplay:10.37,2013-11-25 02:42:00,
2013-11-24 20:43:00,22.5,0.1,29.03,SSW,202,6.9,6.9,37,0.00,CLR,,0.00,WeatherDisplay:10.37,2013-11-25 02:43:00,
2013-11-24 20:44:00,22.5,0.1,29.03,SSW,202,6.9,6.9,37,0.00,CLR,,0.00,WeatherDisplay:10.37,2013-11-25 02:44:00,
2013-11-24 20:45:00,22.5,0.1,29.03,ESE,112,5.9,5.9,37,0.00,CLR,,0.00,WeatherDisplay:10.37,2013-11-25 02:45:00,
2013-11-24 20:47:00,22.5,0.1,29.03,SSW,202,5.8,6.0,37,0.00,CLR,,0.00,WeatherDisplay:10.37,2013-11-25 02:47:00,
2013-11-24 20:48:00,22.5,0.6,29.03,WSW,248,5.8,5.8,38,0.00,CLR,,0.00,WeatherDisplay:10.37,2013-11-25 02:48:00,
2013-11-24 20:49:00,22.5,0.1,29.03,SSW,202,5.8,5.8,37,0.00,CLR,,0.00,WeatherDisplay:10.37,2013-11-25 02:49:00,
2013-11-24 20:50:00,22.5,0.6,29.03,WSW,248,6.0,6.0,38,0.00,CLR,,0.00,WeatherDisplay:10.37,2013-11-25 02:50:00,
2013-11-24 20:52:00,22.5,0.6,29.03,SSW,202,10.7,10.7,38,0.00,CLR,,0.00,WeatherDisplay:10.37,2013-11-25 02:52:00,
2013-11-24 20:54:00,22.5,0.6,29.03,SSE,158,7.6,7.6,38,0.00,CLR,,0.00,WeatherDisplay:10.37,2013-11-25 02:54:00,
2013-11-24 20:55:00,22.6,0.2,29.00,South,180,8.1,8.1,37,0.00,CLR,,0.00,WeatherDisplay:10.37,2013-11-25 02:55:00,
2013-11-24 20:57:00,22.6,0.8,29.00,SSW,202,8.7,8.7,38,0.00,CLR,,0.00,WeatherDisplay:10.37,2013-11-25 02:57:00,
2013-11-24 20:59:00,22.6,0.8,29.00,SSW,202,6.9,6.9,38,0.00,CLR,,0.00,WeatherDisplay:10.37,2013-11-25 02:59:00,
2013-11-24 21:00:00,22.6,0.8,29.00,WSW,248,5.8,5.8,38,0.00,CLR,,0.00,WeatherDisplay:10.37,2013-11-25 03:00:00,
2013-11-24 21:01:00,22.6,0.8,29.00,SSW,202,5.8,5.8,38,0.00,CLR,,0.00,WeatherDisplay:10.37,2013-11-25 03:01:00,
2013-11-24 21:02:00,22.6,0.8,29.00,SSE,158,6.9,6.9,38,0.00,CLR,,0.00,WeatherDisplay:10.37,2013-11-25 03:02:00,
2013-11-24 21:03:00,22.6,0.8,29.00,WSW,248,8.1,8.1,38,0.00,CLR,,0.00,WeatherDisplay:10.37,2013-11-25 03:03:00,
2013-11-24 21:04:00,22.6,0.8,29.00,SSW,202,9.2,9.2,38,0.00,CLR,,0.00,WeatherDisplay:10.37,2013-11-25 03:04:00,
2013-11-24 21:05:00,22.6,0.2,29.00,SSE,158,9.2,9.2,37,0.00,CLR,,0.00,WeatherDisplay:10.37,2013-11-25 03:05:00,
2013-11-24 21:06:00,22.6,0.8,29.00,WSW,248,8.1,8.1,38,0.00,CLR,,0.00,WeatherDisplay:10.37,2013-11-25 03:06:00,
2013-11-24 21:08:00,22.8,1.0,29.00,SSE,158,10.4,10.4,38,0.00,CLR,,0.00,WeatherDisplay:10.37,2013-11-25 03:08:00,
2013-11-24 21:09:00,22.8,1.0,29.00,NW,315,9.7,9.7,38,0.00,CLR,,0.00,WeatherDisplay:10.37,2013-11-25 03:09:00,
2013-11-24 21:10:00,22.8,1.0,29.00,SSW,202,11.5,11.5,38,0.00,CLR,,0.00,WeatherDisplay:10.37,2013-11-25 03:10:00,
2013-11-24 21:11:00,22.8,1.0,29.00,SSE,158,9.2,9.2,38,0.00,CLR,,0.00,WeatherDisplay:10.37,2013-11-25 03:11:00,
2013-11-24 21:13:00,22.8,1.0,29.00,West,270,6.9,6.9,38,0.00,CLR,,0.00,WeatherDisplay:10.37,2013-11-25 03:13:00,
2013-11-24 21:14:00,22.8,1.0,29.00,West,270,12.7,12.7,38,0.00,CLR,,0.00,WeatherDisplay:10.37,2013-11-25 03:14:00,
2013-11-24 21:16:00,22.8,1.0,29.00,SSW,202,15.0,15.0,38,0.00,CLR,,0.00,WeatherDisplay:10.37,2013-11-25 03:16:00,
2013-11-24 21:18:00,22.8,1.0,29.00,SW,225,8.1,8.1,38,0.00,CLR,,0.00,WeatherDisplay:10.37,2013-11-25 03:18:00,
2013-11-24 21:20:00,22.8,1.0,29.00,SSW,202,9.2,9.2,38,0.00,CLR,,0.00,WeatherDisplay:10.37,2013-11-25 03:20:00,
2013-11-24 21:21:00,22.8,1.0,29.00,North,0,13.8,13.8,38,0.00,CLR,,0.00,WeatherDisplay:10.37,2013-11-25 03:21:00,
2013-11-24 21:22:00,22.8,1.0,29.00,WSW,248,10.4,10.4,38,0.00,CLR,,0.00,WeatherDisplay:10.37,2013-11-25 03:22:00,
2013-11-24 21:23:00,22.8,1.0,29.00,SSW,202,10.4,10.4,38,0.00,CLR,,0.00,WeatherDisplay:10.37,2013-11-25 03:23:00,
2013-11-24 21:24:00,22.8,1.0,29.00,West,270,8.1,8.1,38,0.00,CLR,,0.00,WeatherDisplay:10.37,2013-11-25 03:24:00,
2013-11-24 21:25:00,22.8,1.0,29.00,SSW,202,6.9,6.9,38,0.00,CLR,,0.00,WeatherDisplay:10.37,2013-11-25 03:25:00,
2013-11-24 21:26:00,22.8,1.0,29.00,SSW,202,5.8,5.8,38,0.00,CLR,,0.00,WeatherDisplay:10.37,2013-11-25 03:26:00,
2013-11-24 21:27:00,22.8,1.0,29.00,West,270,10.4,10.4,38,0.00,CLR,,0.00,WeatherDisplay:10.37,2013-11-25 03:27:00,
2013-11-24 21:28:00,22.8,1.0,29.00,West,270,13.8,13.8,38,0.00,CLR,,0.00,WeatherDisplay:10.37,2013-11-25 03:28:00,
2013-11-24 21:29:00,22.8,1.0,29.00,South,180,13.8,13.8,38,0.00,CLR,,0.00,WeatherDisplay:10.37,2013-11-25 03:29:00,
2013-11-24 21:30:00,22.8,1.0,29.00,WSW,248,10.4,10.4,38,0.00,CLR,,0.00,WeatherDisplay:10.37,2013-11-25 03:30:00,
2013-11-24 21:31:00,22.8,1.0,29.00,SW,225,10.4,10.4,38,0.00,CLR,,0.00,WeatherDisplay:10.37,2013-11-25 03:31:00,
2013-11-24 21:33:00,22.8,1.0,29.00,SSE,158,6.9,6.9,38,0.00,CLR,,0.00,WeatherDisplay:10.37,2013-11-25 03:33:00,
2013-11-24 21:34:00,22.8,1.0,29.00,SSW,202,5.8,5.8,38,0.00,CLR,,0.00,WeatherDisplay:10.37,2013-11-25 03:34:00,
2013-11-24 21:36:00,22.8,1.0,29.00,SSW,202,8.1,8.1,38,0.00,CLR,,0.00,WeatherDisplay:10.37,2013-11-25 03:36:00,
2013-11-24 21:38:00,22.8,1.0,29.00,SSE,158,5.8,5.8,38,0.00,CLR,,0.00,WeatherDisplay:10.37,2013-11-25 03:38:00,
2013-11-24 21:39:00,22.8,1.0,29.00,SW,225,5.8,5.8,38,0.00,CLR,,0.00,WeatherDisplay:10.37,2013-11-25 03:39:00,
2013-11-24 21:41:00,22.6,0.8,29.00,SSW,202,5.8,5.8,38,0.00,CLR,,0.00,WeatherDisplay:10.37,2013-11-25 03:41:00,
2013-11-24 21:43:00,22.6,0.8,29.00,SE,135,8.1,8.1,38,0.00,CLR,,0.00,WeatherDisplay:10.37,2013-11-25 03:43:00,
2013-11-24 21:44:00,22.6,0.8,29.00,SSW,202,8.1,8.1,38,0.00,CLR,,0.00,WeatherDisplay:10.37,2013-11-25 03:44:00,
2013-11-24 21:45:00,22.6,0.8,29.00,SW,225,6.9,6.9,38,0.00,CLR,,0.00,WeatherDisplay:10.37,2013-11-25 03:45:00,
2013-11-24 21:46:00,22.6,0.8,29.00,NNW,338,8.1,8.1,38,0.00,CLR,,0.00,WeatherDisplay:10.37,2013-11-25 03:46:00,
2013-11-24 21:48:00,22.6,0.8,29.00,South,180,9.2,9.2,38,0.00,CLR,,0.00,WeatherDisplay:10.37,2013-11-25 03:48:00,
2013-11-24 21:49:00,22.6,0.8,29.00,WSW,248,9.2,9.2,38,0.00,CLR,,0.00,WeatherDisplay:10.37,2013-11-25 03:49:00,
2013-11-24 21:51:00,22.6,0.8,29.00,NNW,338,10.4,10.4,38,0.00,CLR,,0.00,WeatherDisplay:10.37,2013-11-25 03:51:00,
2013-11-24 21:52:00,22.6,1.4,29.00,West,270,5.8,5.8,39,0.00,CLR,,0.00,WeatherDisplay:10.37,2013-11-25 03:52:00,
2013-11-24 21:53:00,22.6,1.4,29.00,WSW,248,6.9,6.9,39,0.00,CLR,,0.00,WeatherDisplay:10.37,2013-11-25 03:53:00,
2013-11-24 21:54:00,22.6,0.8,29.00,NNW,338,5.8,5.8,38,0.00,CLR,,0.00,WeatherDisplay:10.37,2013-11-25 03:54:00,
2013-11-24 21:56:00,22.6,0.8,29.00,SSE,158,5.8,5.8,38,0.00,CLR,,0.00,WeatherDisplay:10.37,2013-11-25 03:56:00,
2013-11-24 21:57:00,22.6,0.8,29.00,NNW,338,8.1,8.1,38,0.00,CLR,,0.00,WeatherDisplay:10.37,2013-11-25 03:57:00,
2013-11-24 21:58:00,22.6,0.8,29.00,South,180,5.8,5.8,38,0.00,CLR,,0.00,WeatherDisplay:10.37,2013-11-25 03:58:00,
2013-11-24 21:59:00,22.6,1.4,29.00,SW,225,8.1,8.1,39,0.00,CLR,,0.00,WeatherDisplay:10.37,2013-11-25 03:59:00,
2013-11-24 22:02:00,22.6,1.4,29.00,WSW,248,10.4,10.4,39,0.00,CLR,,0.00,WeatherDisplay:10.37,2013-11-25 04:02:00,
2013-11-24 22:03:00,22.6,0.8,29.00,SE,135,6.0,6.0,38,0.00,CLR,,0.00,WeatherDisplay:10.37,2013-11-25 04:03:00,
2013-11-24 22:04:00,22.6,1.4,29.00,SSW,202,5.8,5.8,39,0.00,CLR,,0.00,WeatherDisplay:10.37,2013-11-25 04:04:00,
2013-11-24 22:07:00,22.8,1.0,29.00,WSW,248,8.1,8.1,38,0.00,CLR,,0.00,WeatherDisplay:10.37,2013-11-25 04:07:00,
2013-11-24 22:09:00,22.8,1.5,29.00,SSW,202,9.2,9.2,39,0.00,CLR,,0.00,WeatherDisplay:10.37,2013-11-25 04:09:00,
2013-11-24 22:10:00,22.8,1.5,28.97,SSW,202,9.2,9.2,39,0.00,CLR,,0.00,WeatherDisplay:10.37,2013-11-25 04:10:00,
2013-11-24 22:12:00,22.8,1.0,28.97,South,180,10.4,10.4,38,0.00,CLR,,0.00,WeatherDisplay:10.37,2013-11-25 04:12:00,
2013-11-24 22:13:00,22.8,1.5,28.97,SSE,158,9.2,9.2,39,0.00,CLR,,0.00,WeatherDisplay:10.37,2013-11-25 04:13:00,
2013-11-24 22:15:00,22.8,1.0,28.97,South,180,12.7,12.7,38,0.00,CLR,,0.00,WeatherDisplay:10.37,2013-11-25 04:15:00,
2013-11-24 22:16:00,22.8,1.5,28.97,SSE,158,10.4,10.4,39,0.00,CLR,,0.00,WeatherDisplay:10.37,2013-11-25 04:16:00,
2013-11-24 22:17:00,22.8,1.0,28.97,WSW,248,10.4,10.4,38,0.00,CLR,,0.00,WeatherDisplay:10.37,2013-11-25 04:17:00,
2013-11-24 22:18:00,22.8,1.0,28.97,SW,225,8.1,8.1,38,0.00,CLR,,0.00,WeatherDisplay:10.37,2013-11-25 04:18:00,
2013-11-24 22:20:00,22.8,1.0,28.97,WSW,248,8.1,8.1,38,0.00,CLR,,0.00,WeatherDisplay:10.37,2013-11-25 04:20:00,
2013-11-24 22:21:00,22.8,1.5,28.97,SE,135,5.8,5.8,39,0.00,CLR,,0.00,WeatherDisplay:10.37,2013-11-25 04:21:00,
2013-11-24 22:22:00,22.8,1.5,28.97,SSW,202,6.2,6.2,39,0.00,CLR,,0.00,WeatherDisplay:10.37,2013-11-25 04:22:00,
2013-11-24 22:23:00,22.8,1.0,28.97,SSW,202,10.5,10.5,38,0.00,CLR,,0.00,WeatherDisplay:10.37,2013-11-25 04:23:00,
2013-11-24 22:25:00,22.8,1.0,28.97,SSE,158,13.8,13.8,38,0.00,CLR,,0.00,WeatherDisplay:10.37,2013-11-25 04:25:00,
2013-11-24 22:26:00,22.8,1.0,28.97,West,270,12.7,12.7,38,0.00,CLR,,0.00,WeatherDisplay:10.37,2013-11-25 04:26:00,
2013-11-24 22:28:00,22.8,1.5,28.97,SSW,202,10.5,10.5,39,0.00,CLR,,0.00,WeatherDisplay:10.37,2013-11-25 04:28:00,
2013-11-24 22:29:00,22.8,1.0,28.97,South,180,11.5,11.5,38,0.00,CLR,,0.00,WeatherDisplay:10.37,2013-11-25 04:29:00,
2013-11-24 22:30:00,22.8,1.0,28.97,WNW,292,11.5,11.5,38,0.00,CLR,,0.00,WeatherDisplay:10.37,2013-11-25 04:30:00,
2013-11-24 22:31:00,22.8,1.0,28.97,NW,315,10.0,10.0,38,0.00,CLR,,0.00,WeatherDisplay:10.37,2013-11-25 04:31:00,
2013-11-24 22:33:00,22.8,1.0,28.97,West,270,12.7,12.7,38,0.00,CLR,,0.00,WeatherDisplay:10.37,2013-11-25 04:33:00,
2013-11-24 22:34:00,22.8,1.0,28.97,South,180,7.4,7.4,38,0.00,CLR,,0.00,WeatherDisplay:10.37,2013-11-25 04:34:00,
2013-11-24 22:35:00,22.8,1.0,28.97,SE,135,8.1,8.1,38,0.00,CLR,,0.00,WeatherDisplay:10.37,2013-11-25 04:35:00,
2013-11-24 22:37:00,22.8,1.0,28.97,South,180,12.7,12.7,38,0.00,CLR,,0.00,WeatherDisplay:10.37,2013-11-25 04:37:00,
2013-11-24 22:39:00,22.8,1.0,28.97,WSW,248,9.2,9.2,38,0.00,CLR,,0.00,WeatherDisplay:10.37,2013-11-25 04:39:00,
2013-11-24 22:40:00,22.8,1.0,28.97,SSW,202,11.5,11.5,38,0.00,CLR,,0.00,WeatherDisplay:10.37,2013-11-25 04:40:00,
2013-11-24 22:42:00,22.8,1.0,28.97,WSW,248,6.2,6.2,38,0.00,CLR,,0.00,WeatherDisplay:10.37,2013-11-25 04:42:00,
2013-11-24 22:44:00,22.8,1.0,28.97,SSW,202,8.1,8.1,38,0.00,CLR,,0.00,WeatherDisplay:10.37,2013-11-25 04:44:00,
2013-11-24 22:45:00,22.8,1.0,28.97,SW,225,8.1,8.5,38,0.00,CLR,,0.00,WeatherDisplay:10.37,2013-11-25 04:45:00,
2013-11-24 22:47:00,22.8,1.0,28.97,WSW,248,8.1,8.1,38,0.00,CLR,,0.00,WeatherDisplay:10.37,2013-11-25 04:47:00,
2013-11-24 22:49:00,22.6,0.8,28.97,SSE,158,6.9,6.9,38,0.00,CLR,,0.00,WeatherDisplay:10.37,2013-11-25 04:49:00,
2013-11-24 22:50:00,22.6,0.8,28.97,NW,315,6.9,6.9,38,0.00,CLR,,0.00,WeatherDisplay:10.37,2013-11-25 04:50:00,
2013-11-24 22:51:00,22.8,1.0,28.97,West,270,8.1,8.1,38,0.00,CLR,,0.00,WeatherDisplay:10.37,2013-11-25 04:51:00,
2013-11-24 22:52:00,22.8,1.0,28.97,South,180,10.4,10.4,38,0.00,CLR,,0.00,WeatherDisplay:10.37,2013-11-25 04:52:00,
2013-11-24 22:55:00,22.8,1.0,29.00,SSW,202,8.1,8.1,38,0.00,CLR,,0.00,WeatherDisplay:10.37,2013-11-25 04:55:00,
2013-11-24 22:56:00,22.8,1.0,29.00,SSE,158,10.9,10.9,38,0.00,CLR,,0.00,WeatherDisplay:10.37,2013-11-25 04:56:00,
2013-11-24 22:57:00,22.8,1.0,29.00,SW,225,11.5,11.5,38,0.00,CLR,,0.00,WeatherDisplay:10.37,2013-11-25 04:57:00,
2013-11-24 22:58:00,22.8,1.0,29.00,SSW,202,11.5,11.5,38,0.00,CLR,,0.00,WeatherDisplay:10.37,2013-11-25 04:58:00,
2013-11-24 23:00:00,22.8,1.0,29.00,SSW,202,4.6,4.6,38,0.00,CLR,,0.00,WeatherDisplay:10.37,2013-11-25 05:00:00,
2013-11-24 23:01:00,22.8,1.0,29.00,SSW,202,8.1,8.1,38,0.00,CLR,,0.00,WeatherDisplay:10.37,2013-11-25 05:01:00,
2013-11-24 23:06:00,22.6,0.8,29.00,SSW,202,4.6,4.6,38,0.00,CLR,,0.00,WeatherDisplay:10.37,2013-11-25 05:06:00,
2013-11-24 23:11:00,22.6,0.8,28.97,South,180,6.9,6.9,38,0.00,CLR,,0.00,WeatherDisplay:10.37,2013-11-25 05:11:00,
2013-11-24 23:12:00,22.8,0.4,28.97,SSW,202,8.1,8.1,37,0.00,CLR,,0.00,WeatherDisplay:10.37,2013-11-25 05:12:00,
2013-11-24 23:16:00,22.8,1.0,28.97,SSW,202,3.5,3.5,38,0.00,CLR,,0.00,WeatherDisplay:10.37,2013-11-25 05:16:00,
2013-11-24 23:17:00,22.8,1.0,28.97,SSW,202,5.8,5.8,38,0.00,CLR,,0.00,WeatherDisplay:10.37,2013-11-25 05:17:00,
2013-11-24 23:21:00,22.8,0.4,28.97,SSW,202,9.2,9.2,37,0.00,CLR,,0.00,WeatherDisplay:10.37,2013-11-25 05:21:00,
2013-11-24 23:22:00,22.8,0.4,28.97,WSW,248,4.6,4.6,37,0.00,CLR,,0.00,WeatherDisplay:10.37,2013-11-25 05:22:00,
2013-11-24 23:23:00,22.8,0.4,28.97,SW,225,3.5,3.5,37,0.00,CLR,,0.00,WeatherDisplay:10.37,2013-11-25 05:23:00,
2013-11-24 23:26:00,22.8,0.4,28.97,SSE,158,9.2,9.2,37,0.00,CLR,,0.00,WeatherDisplay:10.37,2013-11-25 05:26:00,
2013-11-24 23:27:00,22.8,0.4,28.97,SSW,202,9.2,9.2,37,0.00,CLR,,0.00,WeatherDisplay:10.37,2013-11-25 05:27:00,
2013-11-24 23:28:00,22.8,0.4,28.97,SSW,202,5.8,5.8,37,0.00,CLR,,0.00,WeatherDisplay:10.37,2013-11-25 05:28:00,
2013-11-24 23:31:00,22.8,0.4,28.97,SSE,158,5.9,5.9,37,0.00,CLR,,0.00,WeatherDisplay:10.37,2013-11-25 05:31:00,
2013-11-24 23:32:00,22.8,0.4,28.97,SW,225,5.8,5.8,37,0.00,CLR,,0.00,WeatherDisplay:10.37,2013-11-25 05:32:00,
2013-11-24 23:33:00,22.8,0.4,28.97,WNW,292,8.1,8.1,37,0.00,CLR,,0.00,WeatherDisplay:10.37,2013-11-25 05:33:00,
2013-11-24 23:37:00,22.8,0.4,28.97,WNW,292,3.5,3.5,37,0.00,CLR,,0.00,WeatherDisplay:10.37,2013-11-25 05:37:00,
2013-11-24 23:38:00,22.8,0.4,28.97,SW,225,5.8,5.8,37,0.00,CLR,,0.00,WeatherDisplay:10.37,2013-11-25 05:38:00,
2013-11-24 23:39:00,22.8,0.4,28.97,WSW,248,4.6,4.6,37,0.00,CLR,,0.00,WeatherDisplay:10.37,2013-11-25 05:39:00,
2013-11-24 23:42:00,22.8,0.4,28.97,South,180,6.9,6.9,37,0.00,CLR,,0.00,WeatherDisplay:10.37,2013-11-25 05:42:00,
2013-11-24 23:43:00,22.8,0.4,28.97,SSW,202,6.9,6.9,37,0.00,CLR,,0.00,WeatherDisplay:10.37,2013-11-25 05:43:00,
2013-11-24 23:45:00,22.8,0.4,28.97,SSE,158,5.8,5.8,37,0.00,CLR,,0.00,WeatherDisplay:10.37,2013-11-25 05:45:00,
2013-11-24 23:47:00,22.8,0.4,28.97,South,180,7.8,7.8,37,0.00,CLR,,0.00,WeatherDisplay:10.37,2013-11-25 05:47:00,
2013-11-24 23:48:00,22.8,0.4,28.97,West,270,8.1,8.1,37,0.00,CLR,,0.00,WeatherDisplay:10.37,2013-11-25 05:48:00,
2013-11-24 23:49:00,23.0,0.6,28.97,SW,225,8.1,8.1,37,0.00,CLR,,0.00,WeatherDisplay:10.37,2013-11-25 05:49:00,
2013-11-24 23:50:00,22.8,0.4,28.97,South,180,5.8,5.8,37,0.00,CLR,,0.00,WeatherDisplay:10.37,2013-11-25 05:50:00,
2013-11-24 23:53:00,23.0,0.6,28.97,West,270,7.6,7.6,37,0.00,CLR,,0.00,WeatherDisplay:10.37,2013-11-25 05:53:00,
2013-11-24 23:54:00,23.0,0.6,28.97,SSW,202,10.4,10.4,37,0.00,CLR,,0.00,WeatherDisplay:10.37,2013-11-25 05:54:00,
2013-11-24 23:55:00,23.0,0.6,28.97,SSW,202,5.8,5.8,37,0.00,CLR,,0.00,WeatherDisplay:10.37,2013-11-25 05:55:00,
2013-11-24 23:58:00,23.2,0.1,28.97,South,180,12.7,12.7,36,0.00,CLR,,0.00,WeatherDisplay:10.37,2013-11-25 05:58:00,
2013-11-24 23:59:00,23.2,0.1,28.97,South,180,5.8,5.8,36,0.00,CLR,,0.00,WeatherDisplay:10.37,2013-11-25 05:59:00,